Latitude: N 50° 09' 49" Longitude: W 05° 11' 53" Elevation: 168m ASL

There are 4 visitors online

Adverts

<- Previous Day | Today | Next Day ->

All Data for 24 February 2018

Time
A - D
Temp
A - D
Dew Point
A - D
Humidity
A - D
Pressure
A - D
Wind
A - D
Wind Dir Gust
A - D
Rain Rate
A - D
Rain Total
00:01 3.6 1.0 83 1014.2 6.0 N 9.2 0.0 0.0
00:02 3.6 1.0 83 1014.2 6.9 SW 9.2 0.0 0.0
00:04 3.6 1.0 83 1014.2 8.3 N 9.2 0.0 0.0
00:07 3.5 0.9 83 1014.3 6.0 N 8.3 0.0 0.0
00:09 3.5 0.9 83 1014.3 6.0 NW 8.3 0.0 0.0
00:10 3.5 0.9 83 1014.2 4.5 NW 8.3 0.0 0.0
00:12 3.5 0.9 83 1014.1 4.5 NW 8.3 0.0 0.0
00:14 3.5 0.9 83 1014.2 4.5 NW 7.6 0.0 0.0
00:16 3.5 0.9 83 1014.2 9.8 N 10.7 0.0 0.0
00:17 3.5 0.9 83 1014.0 6.9 NE 10.7 0.0 0.0
00:19 3.5 0.9 83 1014.2 5.4 NE 10.7 0.0 0.0
00:22 3.6 1.2 84 1014.2 6.0 N 10.7 0.0 0.0
00:24 3.6 1.2 84 1014.3 5.4 NW 10.7 0.0 0.0
00:26 3.6 1.2 84 1014.3 6.0 N 9.8 0.0 0.0
00:28 3.6 1.2 84 1014.4 3.8 NW 7.6 0.0 0.0
00:30 3.7 1.3 84 1014.2 3.8 N 7.6 0.0 0.0
00:32 3.7 1.3 84 1014.3 6.0 NW 7.6 0.0 0.0
00:34 3.7 1.3 84 1014.2 5.4 N 9.2 0.0 0.0
00:36 3.8 1.3 84 1014.3 6.0 NW 9.8 0.0 0.0
00:38 3.8 1.3 84 1014.3 2.2 E 9.8 0.0 0.0
00:41 3.8 1.3 84 1014.3 5.4 S 9.8 0.0 0.0
00:43 3.9 1.4 84 1014.3 9.8 E 9.8 0.0 0.0
00:45 3.9 1.4 84 1014.3 4.5 NE 9.8 0.0 0.0
00:47 3.9 1.4 84 1014.4 4.5 N 9.8 0.0 0.0
00:50 3.9 1.4 84 1014.3 3.8 NE 9.8 0.0 0.0
00:52 3.9 1.4 84 1014.3 8.3 WNW 9.8 0.0 0.0
00:54 3.9 1.4 84 1014.4 6.0 SE 9.8 0.0 0.0
00:56 3.9 1.4 84 1014.4 3.1 E 9.8 0.0 0.0
00:58 3.9 1.4 84 1014.2 3.1 N 9.8 0.0 0.0
01:00 4.0 1.5 84 1014.4 6.0 NE 9.8 0.0 0.0
01:02 3.9 1.4 84 1014.2 4.5 NE 8.3 0.0 0.0
01:04 3.9 1.4 84 1014.3 4.5 SE 6.9 0.0 0.0
01:06 3.9 1.4 84 1014.2 5.4 NE 11.4 0.0 0.0
01:08 3.9 1.4 84 1014.2 6.0 E 11.4 0.0 0.0
01:10 3.9 1.4 84 1014.3 8.3 E 11.4 0.0 0.0
01:12 3.9 1.4 84 1014.2 8.3 E 11.4 0.0 0.0
01:14 3.9 1.4 84 1014.2 8.3 E 11.4 0.0 0.0
01:15 3.9 1.4 84 1014.5 5.4 SE 8.3 0.0 0.0
01:17 3.8 1.3 84 1014.2 6.0 N 8.3 0.0 0.0
01:18 3.8 1.3 84 1014.2 6.0 NE 8.3 0.0 0.0
01:19 3.8 1.3 84 1014.2 4.5 N 8.3 0.0 0.0
01:20 3.8 1.3 84 1014.3 3.1 NW 8.3 0.0 0.0
01:21 3.8 1.3 84 1014.3 3.1 NW 8.3 0.0 0.0
01:22 3.8 1.3 84 1014.1 6.0 S 8.3 0.0 0.0
01:23 3.7 1.3 84 1014.2 8.3 NE 8.3 0.0 0.0
01:24 3.7 1.3 84 1014.3 6.9 E 8.3 0.0 0.0
01:25 3.7 1.3 84 1014.4 4.5 E 8.3 0.0 0.0
01:26 3.7 1.3 84 1014.3 5.4 NW 8.3 0.0 0.0
01:27 3.7 1.1 83 1014.2 5.4 NW 8.3 0.0 0.0
01:28 3.7 1.3 84 1014.3 4.5 SE 8.3 0.0 0.0
01:29 3.7 1.3 84 1014.2 6.0 SE 8.3 0.0 0.0
01:30 3.7 1.3 84 1014.2 3.1 NE 8.3 0.0 0.0
01:31 3.7 1.3 84 1014.3 3.1 NE 8.3 0.0 0.0
01:32 3.6 1.2 84 1014.3 3.8 NE 8.3 0.0 0.0
01:33 3.6 1.0 83 1014.3 4.5 NW 9.2 0.0 0.0
01:34 3.6 1.2 84 1014.3 4.5 N 9.2 0.0 0.0
01:35 3.6 1.0 83 1014.2 6.0 N 9.2 0.0 0.0
01:36 3.6 1.0 83 1014.2 5.4 N 9.2 0.0 0.0
01:37 3.6 1.0 83 1014.4 6.9 SE 9.2 0.0 0.0
01:38 3.6 1.0 83 1014.5 6.0 N 9.2 0.0 0.0
01:39 3.6 1.0 83 1014.4 4.5 NE 9.2 0.0 0.0
01:41 3.6 1.0 83 1014.4 9.2 NW 9.2 0.0 0.0
01:42 3.6 1.0 83 1014.4 4.5 SE 9.2 0.0 0.0
01:43 3.5 0.9 83 1014.4 3.8 SE 9.2 0.0 0.0
01:44 3.5 0.9 83 1014.3 4.5 NE 9.2 0.0 0.0
01:45 3.5 0.9 83 1014.4 2.2 NE 9.2 0.0 0.0
01:46 3.5 0.9 83 1014.4 3.8 N 9.2 0.0 0.0
01:47 3.5 0.9 83 1014.2 6.0 NE 9.2 0.0 0.0
01:48 3.5 0.9 83 1014.3 7.6 NE 9.2 0.0 0.0
01:49 3.5 0.9 83 1014.3 6.0 E 9.2 0.0 0.0
01:50 3.5 0.9 83 1014.3 4.5 NW 9.2 0.0 0.0
01:51 3.5 0.9 83 1014.3 6.9 NE 7.6 0.0 0.0
01:52 3.5 0.9 83 1014.1 9.2 E 9.2 0.0 0.0
01:53 3.5 0.9 83 1014.3 9.8 NW 9.8 0.0 0.0
01:54 3.5 0.9 83 1014.2 5.4 E 9.8 0.0 0.0
01:55 3.5 0.9 83 1014.3 4.5 W 9.8 0.0 0.0
01:56 3.5 0.9 83 1014.4 6.9 N 9.8 0.0 0.0
01:57 3.5 0.9 83 1014.3 8.3 N 9.8 0.0 0.0
01:58 3.5 0.9 83 1014.2 6.0 E 9.8 0.0 0.0
01:59 3.5 0.9 83 1014.3 5.4 N 9.8 0.0 0.0
02:00 3.5 0.9 83 1014.3 3.8 N 9.8 0.0 0.0
02:01 3.5 0.9 83 1014.3 4.5 E 9.8 0.0 0.0
02:02 3.5 0.9 83 1014.5 4.5 N 9.8 0.0 0.0
02:03 3.5 0.9 83 1014.2 4.5 E 8.3 0.0 0.0
02:04 3.5 0.9 83 1014.2 5.4 NE 8.3 0.0 0.0
02:05 3.5 0.9 83 1014.3 6.0 SE 8.3 0.0 0.0
02:07 3.5 0.9 83 1014.4 5.4 N 8.3 0.0 0.0
02:08 3.5 0.9 83 1014.3 4.5 N 6.0 0.0 0.0
02:09 3.6 1.0 83 1014.2 8.3 SW 8.3 0.0 0.0
02:10 3.6 1.0 83 1014.2 8.3 SW 8.3 0.0 0.0
02:11 3.6 1.0 83 1014.2 8.3 SW 8.3 0.0 0.0
02:12 3.6 1.0 83 1014.3 8.3 SW 8.3 0.0 0.0
02:13 3.6 1.0 83 1014.4 8.3 SW 8.3 0.0 0.0
02:14 3.6 1.0 83 1014.4 8.3 SW 8.3 0.0 0.0
02:15 3.6 1.0 83 1014.3 4.5 N 8.3 0.0 0.0
02:16 3.6 1.0 83 1014.2 4.5 SE 8.3 0.0 0.0
02:17 3.6 1.0 83 1014.1 6.0 SW 8.3 0.0 0.0
02:18 3.7 1.1 83 1014.2 4.5 N 8.3 0.0 0.0
02:19 3.6 1.0 83 1014.2 5.4 N 8.3 0.0 0.0
02:20 3.6 1.0 83 1014.2 4.5 NE 8.3 0.0 0.0
02:21 3.7 1.1 83 1014.3 3.1 NE 8.3 0.0 0.0
02:23 3.7 1.1 83 1014.3 7.6 N 10.7 0.0 0.0
02:24 3.7 1.1 83 1014.2 6.0 N 10.7 0.0 0.0
02:25 3.7 1.1 83 1014.3 4.5 NE 10.7 0.0 0.0
02:26 3.7 1.1 83 1014.2 3.8 N 10.7 0.0 0.0
02:27 3.7 1.1 83 1014.3 4.5 N 10.7 0.0 0.0
02:28 3.7 1.1 83 1014.3 6.9 SE 10.7 0.0 0.0
02:29 3.7 1.1 83 1014.2 2.2 NE 10.7 0.0 0.0
02:30 3.7 1.1 83 1014.3 6.0 NW 10.7 0.0 0.0
02:31 3.7 1.1 83 1014.3 5.4 NE 10.7 0.0 0.0
02:36 3.7 1.1 83 1014.2 5.4 NE 9.2 0.0 0.0
02:38 3.7 1.1 83 1014.2 3.8 SE 9.2 0.0 0.0
02:39 3.7 1.1 83 1014.2 7.6 N 9.2 0.0 0.0
02:40 3.7 1.1 83 1014.2 3.1 NW 9.2 0.0 0.0
02:41 3.7 1.3 84 1014.2 6.0 SE 9.2 0.0 0.0
02:42 3.7 1.1 83 1014.1 3.1 NW 9.2 0.0 0.0
02:43 3.7 1.3 84 1014.2 3.1 NW 9.2 0.0 0.0
02:44 3.7 1.3 84 1014.1 5.4 SW 9.2 0.0 0.0
02:45 3.7 1.3 84 1014.2 6.0 N 9.2 0.0 0.0
02:46 3.8 1.3 84 1014.3 6.0 NW 7.6 0.0 0.0
02:47 3.7 1.3 84 1014.3 3.8 NE 7.6 0.0 0.0
02:48 3.7 1.3 84 1014.2 9.8 NE 9.8 0.0 0.0
02:49 3.8 1.3 84 1014.1 6.9 E 9.8 0.0 0.0
02:50 3.7 1.3 84 1014.2 4.5 SE 9.8 0.0 0.0
02:51 3.7 1.3 84 1014.1 5.4 E 9.8 0.0 0.0
02:52 3.7 1.3 84 1014.2 9.2 SE 9.8 0.0 0.0
02:53 3.8 1.3 84 1014.2 6.9 SE 9.8 0.0 0.0
02:54 3.7 1.3 84 1014.2 5.4 NE 9.8 0.0 0.0
02:55 3.8 1.3 84 1014.1 3.1 N 9.8 0.0 0.0
02:56 3.7 1.3 84 1014.2 3.8 NE 9.8 0.0 0.0
02:57 3.7 1.3 84 1014.2 3.8 SE 9.8 0.0 0.0
02:58 3.7 1.3 84 1014.2 10.7 N 10.7 0.0 0.0
02:59 3.7 1.3 84 1014.1 4.5 SE 10.7 0.0 0.0
03:01 3.7 1.3 84 1014.2 6.0 E 10.7 0.0 0.0
03:02 3.7 1.3 84 1014.2 5.4 E 10.7 0.0 0.0
03:03 3.7 1.3 84 1014.2 6.9 N 10.7 0.0 0.0
03:04 3.7 1.3 84 1014.2 5.4 SE 10.7 0.0 0.0
03:05 3.7 1.3 84 1014.3 3.1 SE 10.7 0.0 0.0
03:06 3.7 1.3 84 1014.2 6.9 N 10.7 0.0 0.0
03:07 3.7 1.3 84 1014.2 5.4 SE 10.7 0.0 0.0
03:08 3.7 1.1 83 1014.2 3.1 E 10.7 0.0 0.0
03:09 3.7 1.3 84 1014.2 5.4 E 6.9 0.0 0.0
03:10 3.6 1.2 84 1014.3 6.0 SE 6.9 0.0 0.0
03:11 3.6 1.2 84 1014.2 8.3 SE 8.3 0.0 0.0
03:12 3.6 1.2 84 1014.1 8.3 SE 8.3 0.0 0.0
03:14 3.6 1.2 84 1014.1 8.3 SE 8.3 0.0 0.0
03:15 3.6 1.0 83 1014.0 2.2 E 8.3 0.0 0.0
03:16 3.6 1.2 84 1014.2 3.1 E 8.3 0.0 0.0
03:17 3.5 1.1 84 1014.2 2.2 E 8.3 0.0 0.0
03:18 3.5 1.1 84 1014.3 4.5 NE 8.3 0.0 0.0
03:19 3.5 1.1 84 1014.1 4.5 NE 8.3 0.0 0.0
03:21 3.5 1.1 84 1014.2 4.5 NE 8.3 0.0 0.0
03:22 3.5 1.1 84 1014.3 3.8 N 8.3 0.0 0.0
03:23 3.5 1.1 84 1014.2 6.0 N 8.3 0.0 0.0
03:24 3.5 1.1 84 1014.1 9.2 NW 9.2 0.0 0.0
03:25 3.5 1.1 84 1014.1 5.4 N 9.2 0.0 0.0
03:26 3.5 1.1 84 1014.1 8.3 N 9.2 0.0 0.0
03:27 3.5 1.1 84 1014.1 6.0 NE 9.2 0.0 0.0
03:28 3.5 1.1 84 1014.2 3.1 N 9.2 0.0 0.0
03:29 3.5 1.1 84 1014.2 5.4 NE 9.2 0.0 0.0
03:30 3.4 0.8 83 1014.2 3.1 NE 9.2 0.0 0.0
03:31 3.4 0.8 83 1014.4 3.1 SE 9.2 0.0 0.0
03:32 3.4 0.8 83 1014.2 6.0 NE 9.2 0.0 0.0
03:33 3.4 0.8 83 1014.2 4.5 N 9.2 0.0 0.0
03:34 3.3 0.7 83 1014.2 5.4 N 8.3 0.0 0.0
03:35 3.3 0.7 83 1014.2 6.9 NE 8.3 0.0 0.0
03:36 3.3 0.7 83 1014.3 4.5 NE 6.9 0.0 0.0
03:37 3.3 0.7 83 1014.2 3.8 N 6.9 0.0 0.0
03:38 3.2 0.6 83 1014.2 4.5 E 6.9 0.0 0.0
03:39 3.2 0.6 83 1014.2 3.8 E 6.9 0.0 0.0
03:40 3.2 0.6 83 1014.1 6.9 N 6.9 0.0 0.0
03:42 3.2 0.6 83 1014.2 3.1 N 6.9 0.0 0.0
03:43 3.2 0.6 83 1014.2 2.2 N 6.9 0.0 0.0
03:44 3.2 0.6 83 1014.2 2.2 N 6.9 0.0 0.0
03:45 3.2 0.6 83 1014.2 5.4 NE 6.9 0.0 0.0
03:46 3.2 0.6 83 1014.0 4.5 NE 6.9 0.0 0.0
03:47 3.2 0.6 83 1014.2 4.5 N 6.9 0.0 0.0
03:48 3.2 0.8 84 1014.1 6.0 N 6.9 0.0 0.0
03:49 3.2 0.8 84 1014.1 5.4 N 6.9 0.0 0.0
03:50 3.2 0.8 84 1014.1 4.5 N 6.9 0.0 0.0
03:51 3.2 0.8 84 1014.1 3.8 N 6.0 0.0 0.0
03:52 3.2 0.8 84 1014.0 8.3 NW 8.3 0.0 0.0
03:53 3.2 0.8 84 1014.2 9.2 NE 9.2 0.0 0.0
03:54 3.2 0.8 84 1014.1 7.6 N 9.2 0.0 0.0
03:55 3.2 0.8 84 1014.2 4.5 NE 9.2 0.0 0.0
03:56 3.2 0.8 84 1014.1 4.5 N 9.2 0.0 0.0
03:57 3.3 0.9 84 1014.2 4.5 NW 9.2 0.0 0.0
03:58 3.3 0.9 84 1014.1 4.5 N 9.2 0.0 0.0
03:59 3.2 0.8 84 1014.2 8.3 E 9.2 0.0 0.0
04:00 3.2 0.8 84 1014.3 2.2 E 9.2 0.0 0.0
04:02 3.3 0.9 84 1014.4 2.2 NE 9.2 0.0 0.0
04:03 3.2 0.8 84 1014.3 3.8 E 9.2 0.0 0.0
04:04 3.3 0.9 84 1014.4 5.4 N 8.3 0.0 0.0
04:05 3.3 0.9 84 1014.3 6.0 NW 8.3 0.0 0.0
04:07 3.3 0.9 84 1014.4 6.0 NE 8.3 0.0 0.0
04:09 3.3 0.9 84 1014.3 6.9 NE 8.3 0.0 0.0
04:11 3.3 0.9 84 1014.3 4.5 N 6.9 0.0 0.0
04:13 3.3 0.9 84 1014.3 4.5 N 6.9 0.0 0.0
04:14 3.3 0.9 84 1014.3 4.5 N 6.9 0.0 0.0
04:16 3.3 0.9 84 1014.4 8.3 NE 8.3 0.0 0.0
04:17 3.3 0.9 84 1014.4 3.1 N 8.3 0.0 0.0
04:18 3.3 0.9 84 1014.2 5.4 N 8.3 0.0 0.0
04:19 3.3 0.9 84 1014.4 3.8 N 8.3 0.0 0.0
04:20 3.3 0.9 84 1014.4 7.6 NE 8.3 0.0 0.0
04:21 3.3 0.9 84 1014.4 6.0 N 8.3 0.0 0.0
04:22 3.3 0.9 84 1014.3 3.8 N 8.3 0.0 0.0
04:23 3.3 0.9 84 1014.3 5.4 N 8.3 0.0 0.0
04:24 3.3 0.9 84 1014.4 5.4 NE 8.3 0.0 0.0
04:25 3.3 0.9 84 1014.4 5.4 N 8.3 0.0 0.0
04:27 3.3 0.9 84 1014.4 6.0 NE 7.6 0.0 0.0
04:28 3.3 0.9 84 1014.4 9.2 N 9.2 0.0 0.0
04:29 3.3 0.9 84 1014.3 4.5 SE 9.2 0.0 0.0
04:30 3.3 0.9 84 1014.2 3.8 SE 9.2 0.0 0.0
04:31 3.3 0.9 84 1014.4 6.9 N 9.2 0.0 0.0
04:32 3.3 0.9 84 1014.4 3.1 N 9.2 0.0 0.0
04:33 3.3 0.9 84 1014.3 6.9 E 9.2 0.0 0.0
04:34 3.3 0.9 84 1014.5 6.0 N 9.2 0.0 0.0
04:35 3.3 0.9 84 1014.4 6.0 N 9.2 0.0 0.0
04:36 3.3 0.9 84 1014.3 6.0 E 9.2 0.0 0.0
04:37 3.3 0.9 84 1014.2 3.1 N 9.2 0.0 0.0
04:38 3.3 0.9 84 1014.4 3.1 N 8.3 0.0 0.0
04:39 3.3 0.9 84 1014.4 3.8 N 6.9 0.0 0.0
04:40 3.3 0.9 84 1014.4 3.1 NE 6.9 0.0 0.0
04:41 3.3 0.9 84 1014.4 3.1 NE 6.9 0.0 0.0
04:42 3.3 0.9 84 1014.3 2.2 NE 6.9 0.0 0.0
04:43 3.3 0.9 84 1014.4 3.1 N 6.9 0.0 0.0
04:44 3.3 0.9 84 1014.5 3.8 SE 6.0 0.0 0.0
04:46 3.3 0.9 84 1014.3 5.4 SE 6.0 0.0 0.0
04:47 3.2 0.8 84 1014.4 4.5 SE 6.0 0.0 0.0
04:48 3.2 0.8 84 1014.4 2.2 E 6.0 0.0 0.0
04:49 3.2 0.8 84 1014.5 6.0 NE 6.0 0.0 0.0
04:50 3.2 0.8 84 1014.6 3.8 NE 6.0 0.0 0.0
04:51 3.2 0.8 84 1014.6 3.1 NE 6.0 0.0 0.0
04:52 3.2 0.8 84 1014.4 3.8 NE 6.0 0.0 0.0
04:53 3.2 0.8 84 1014.3 3.1 NE 6.0 0.0 0.0
04:54 3.2 0.8 84 1014.5 4.5 NE 6.0 0.0 0.0
04:55 3.2 0.8 84 1014.5 7.6 NE 7.6 0.0 0.0
04:56 3.2 0.8 84 1014.5 6.9 NE 7.6 0.0 0.0
04:57 3.1 0.7 84 1014.6 4.5 NE 7.6 0.0 0.0
04:58 3.1 0.7 84 1014.5 3.8 N 7.6 0.0 0.0
04:59 3.1 0.7 84 1014.5 4.5 NW 7.6 0.0 0.0
05:00 3.1 0.7 84 1014.7 3.8 NE 7.6 0.0 0.0
05:01 3.1 0.7 84 1014.6 2.2 N 7.6 0.0 0.0
05:02 3.1 0.7 84 1014.6 2.2 N 7.6 0.0 0.0
05:03 3.1 0.7 84 1014.6 4.5 N 7.6 0.0 0.0
05:04 3.1 0.7 84 1014.6 3.8 NE 7.6 0.0 0.0
05:06 3.1 0.7 84 1014.6 3.1 E 7.6 0.0 0.0
05:07 3.0 0.7 85 1014.6 3.8 N 4.5 0.0 0.0
05:08 3.0 0.6 84 1014.5 5.4 N 5.4 0.0 0.0
05:09 3.0 0.7 85 1014.5 3.1 N 5.4 0.0 0.0
05:10 3.0 0.7 85 1014.7 4.5 N 5.4 0.0 0.0
05:11 3.0 0.7 85 1014.7 4.5 N 5.4 0.0 0.0
05:12 3.0 0.7 85 1014.7 4.5 N 5.4 0.0 0.0
05:13 3.0 0.7 85 1014.8 4.5 N 5.4 0.0 0.0
05:15 3.0 0.7 85 1014.7 4.5 N 5.4 0.0 0.0
05:16 3.0 0.7 85 1014.7 4.5 N 5.4 0.0 0.0
05:17 3.0 0.7 85 1014.8 3.8 NE 5.4 0.0 0.0
05:18 3.0 0.7 85 1014.7 3.8 NE 4.5 0.0 0.0
05:20 3.0 0.7 85 1014.8 3.1 S 4.5 0.0 0.0
05:21 3.0 0.7 85 1014.8 6.0 N 6.0 0.0 0.0
05:22 3.0 0.7 85 1014.9 2.2 NE 6.0 0.0 0.0
05:23 3.0 0.7 85 1014.9 3.8 N 6.0 0.0 0.0
05:24 2.9 0.6 85 1014.9 3.1 NE 6.9 0.0 0.0
05:25 2.9 0.6 85 1014.8 5.4 NE 6.9 0.0 0.0
05:26 2.9 0.6 85 1014.8 3.1 NE 6.9 0.0 0.0
05:27 2.9 0.6 85 1014.9 3.1 NE 6.9 0.0 0.0
05:28 2.9 0.6 85 1014.7 4.5 NE 6.9 0.0 0.0
05:29 3.0 0.7 85 1015.0 3.8 NE 6.9 0.0 0.0
05:31 3.0 0.7 85 1015.0 3.1 N 6.9 0.0 0.0
05:32 3.0 0.7 85 1015.0 4.5 NE 6.9 0.0 0.0
05:33 3.0 0.7 85 1015.1 4.5 N 6.9 0.0 0.0
05:34 3.0 0.7 85 1015.0 3.1 NE 6.0 0.0 0.0
05:35 3.0 0.7 85 1015.0 3.1 NE 6.0 0.0 0.0
05:36 3.0 0.7 85 1015.0 6.0 N 6.0 0.0 0.0
05:38 3.0 0.9 86 1015.1 6.0 SE 6.0 0.0 0.0
05:39 3.0 0.9 86 1015.1 7.6 SE 7.6 0.0 0.0
05:40 3.0 0.9 86 1015.0 3.8 N 7.6 0.0 0.0
05:41 3.0 0.9 86 1015.0 5.4 N 7.6 0.0 0.0
05:42 3.0 0.9 86 1015.1 3.8 W 7.6 0.0 0.0
05:44 3.0 0.7 85 1015.0 3.1 NE 10.7 0.0 0.0
05:45 3.0 0.7 85 1015.0 7.6 N 10.7 0.0 0.0
05:46 3.0 0.9 86 1014.9 4.5 NE 10.7 0.0 0.0
05:47 3.0 0.9 86 1014.9 5.4 NE 10.7 0.0 0.0
05:48 3.1 1.0 86 1014.9 6.0 NE 10.7 0.0 0.0
05:49 3.1 1.0 86 1015.0 3.1 NE 10.7 0.0 0.0
05:50 3.1 1.0 86 1015.0 3.8 NE 10.7 0.0 0.0
05:51 3.1 1.0 86 1014.9 6.0 N 10.7 0.0 0.0
05:52 3.1 1.0 86 1015.0 4.5 N 10.7 0.0 0.0
05:53 3.1 1.0 86 1014.9 11.4 NE 11.4 0.0 0.0
05:54 3.1 1.0 86 1015.1 11.4 N 11.4 0.0 0.0
05:55 3.1 1.0 86 1015.2 3.8 NW 11.4 0.0 0.0
05:57 3.2 1.1 86 1015.1 3.8 NW 11.4 0.0 0.0
05:58 3.2 1.1 86 1015.1 3.8 N 11.4 0.0 0.0
05:59 3.2 1.1 86 1015.0 5.4 NE 11.4 0.0 0.0
06:00 3.2 1.1 86 1015.2 4.5 NE 11.4 0.0 0.0
06:01 3.2 1.1 86 1015.2 8.3 N 11.4 0.0 0.0
06:02 3.2 0.9 85 1015.2 6.0 NW 11.4 0.0 0.0
06:03 3.3 1.2 86 1015.1 6.9 W 11.4 0.0 0.0
06:04 3.2 1.1 86 1015.2 6.0 N 11.4 0.0 0.0
06:05 3.2 1.1 86 1015.2 6.0 N 9.8 0.0 0.0
06:06 3.3 1.2 86 1015.2 5.4 N 9.8 0.0 0.0
06:08 3.3 1.2 86 1015.2 6.0 NE 9.8 0.0 0.0
06:09 3.3 1.2 86 1015.2 6.0 NE 9.8 0.0 0.0
06:11 3.3 1.0 85 1015.2 5.4 NW 9.8 0.0 0.0
06:12 3.3 1.0 85 1015.2 3.8 NW 9.8 0.0 0.0
06:13 3.3 1.0 85 1015.3 3.8 NW 6.9 0.0 0.0
06:14 3.3 1.0 85 1015.2 3.8 NW 6.0 0.0 0.0
06:15 3.3 1.0 85 1015.3 3.8 NW 6.0 0.0 0.0
06:16 3.3 1.0 85 1015.1 3.8 NW 6.0 0.0 0.0
06:18 3.3 1.2 86 1015.3 6.0 SW 6.0 0.0 0.0
06:19 3.3 1.0 85 1015.2 5.4 NE 6.0 0.0 0.0
06:20 3.3 1.0 85 1015.3 4.5 NW 9.8 0.0 0.0
06:21 3.3 1.0 85 1015.3 5.4 NE 9.8 0.0 0.0
06:22 3.3 1.2 86 1015.3 4.5 NE 9.8 0.0 0.0
06:23 3.3 1.0 85 1015.3 7.6 NE 9.8 0.0 0.0
06:24 3.3 1.0 85 1015.4 3.8 N 9.8 0.0 0.0
06:25 3.3 1.0 85 1015.5 3.8 NE 9.8 0.0 0.0
06:26 3.3 1.0 85 1015.6 8.3 NE 9.8 0.0 0.0
06:27 3.4 1.1 85 1015.3 10.7 NW 10.7 0.0 0.0
06:28 3.4 1.1 85 1015.4 5.4 N 10.7 0.0 0.0
06:29 3.4 1.1 85 1015.5 3.1 N 10.7 0.0 0.0
06:30 3.4 1.1 85 1015.4 5.4 N 10.7 0.0 0.0
06:31 3.3 1.0 85 1015.5 3.1 N 10.7 0.0 0.0
06:32 3.4 1.1 85 1015.4 6.0 N 10.7 0.0 0.0
06:33 3.4 1.1 85 1015.4 6.9 NE 10.7 0.0 0.0
06:34 3.4 1.1 85 1015.5 5.4 N 10.7 0.0 0.0
06:35 3.4 1.1 85 1015.5 6.9 NE 12.1 0.0 0.0
06:36 3.4 1.1 85 1015.6 9.8 N 12.1 0.0 0.0
06:38 3.4 1.1 85 1015.5 4.5 N 12.1 0.0 0.0
06:39 3.4 1.1 85 1015.6 4.5 N 12.1 0.0 0.0
06:40 3.4 1.1 85 1015.4 2.2 N 12.1 0.0 0.0
06:41 3.4 1.1 85 1015.4 3.1 E 12.1 0.0 0.0
06:42 3.4 1.1 85 1015.5 5.4 NE 12.1 0.0 0.0
06:43 3.4 1.1 85 1015.7 6.9 NE 12.1 0.0 0.0
06:44 3.4 1.1 85 1015.4 6.9 NE 12.1 0.0 0.0
06:45 3.4 1.1 85 1015.6 5.4 NE 12.1 0.0 0.0
06:46 3.4 1.1 85 1015.5 4.5 NE 9.8 0.0 0.0
06:47 3.4 1.1 85 1015.6 3.1 N 6.9 0.0 0.0
06:48 3.4 1.1 85 1015.6 4.5 E 6.9 0.0 0.0
06:49 3.4 1.1 85 1015.7 6.0 N 6.9 0.0 0.0
06:50 3.4 1.1 85 1015.6 6.9 N 6.9 0.0 0.0
06:51 3.4 1.1 85 1015.7 3.8 E 6.9 0.0 0.0
06:52 3.4 1.1 85 1015.6 3.1 E 6.9 0.0 0.0
06:53 3.4 1.1 85 1015.6 8.3 NE 8.3 0.0 0.0
06:54 3.5 1.2 85 1015.5 3.1 NE 8.3 0.0 0.0
06:55 3.4 1.1 85 1015.6 4.5 NE 8.3 0.0 0.0
06:56 3.5 1.2 85 1015.6 3.1 NE 8.3 0.0 0.0
06:57 3.4 1.1 85 1015.7 2.2 NE 8.3 0.0 0.0
06:58 3.4 1.1 85 1015.7 6.0 N 8.3 0.0 0.0
06:59 3.4 1.1 85 1015.5 7.6 N 8.3 0.0 0.0
07:00 3.4 1.1 85 1015.6 7.6 NE 8.3 0.0 0.0
07:01 3.5 1.2 85 1015.7 4.5 N 8.3 0.0 0.0
07:02 3.5 1.2 85 1015.7 3.8 N 8.3 0.0 0.0
07:03 3.5 1.2 85 1015.6 3.1 E 7.6 0.0 0.0
07:04 3.5 1.2 85 1015.7 5.4 N 7.6 0.0 0.0
07:05 3.5 1.2 85 1015.7 3.8 N 7.6 0.0 0.0
07:06 3.5 1.2 85 1015.7 4.5 N 7.6 0.0 0.0
07:07 3.5 1.2 85 1015.7 3.1 N 7.6 0.0 0.0
07:08 3.5 1.2 85 1015.8 4.5 N 7.6 0.0 0.0
07:09 3.5 1.4 86 1015.7 8.3 NE 8.3 0.0 0.0
07:10 3.5 1.4 86 1016.0 7.6 N 10.7 0.0 0.0
07:11 3.5 1.2 85 1015.9 4.5 NW 10.7 0.0 0.0
07:12 3.5 1.2 85 1015.8 4.5 NW 10.7 0.0 0.0
07:13 3.5 1.2 85 1016.0 4.5 NW 10.7 0.0 0.0
07:14 3.5 1.2 85 1016.1 4.5 NW 10.7 0.0 0.0
07:15 3.5 1.2 85 1016.1 4.5 NW 10.7 0.0 0.0
07:16 3.5 1.2 85 1016.0 4.5 NW 10.7 0.0 0.0
07:17 3.5 1.2 85 1016.0 6.0 N 10.7 0.0 0.0
07:18 3.5 1.2 85 1016.1 3.8 N 10.7 0.0 0.0
07:19 3.5 1.2 85 1015.9 4.5 N 10.7 0.0 0.0
07:20 3.5 1.2 85 1016.1 5.4 E 7.6 0.0 0.0
07:21 3.5 1.2 85 1016.0 8.3 N 8.3 0.0 0.0
07:22 3.5 1.2 85 1016.0 7.6 N 8.3 0.0 0.0
07:23 3.5 1.2 85 1016.0 6.0 NE 8.3 0.0 0.0
07:24 3.5 1.2 85 1016.2 6.0 NE 8.3 0.0 0.0
07:25 3.5 1.2 85 1016.1 7.6 N 8.3 0.0 0.0
07:26 3.5 1.2 85 1016.1 5.4 N 8.3 0.0 0.0
07:27 3.5 1.2 85 1016.2 4.5 N 8.3 0.0 0.0
07:28 3.5 1.2 85 1016.0 2.2 N 8.3 0.0 0.0
07:29 3.5 1.2 85 1016.1 4.5 NE 8.3 0.0 0.0
07:30 3.5 1.2 85 1016.0 6.9 NE 10.7 0.0 0.0
07:31 3.5 1.2 85 1016.1 5.4 N 10.7 0.0 0.0
07:32 3.5 1.2 85 1016.1 5.4 NE 10.7 0.0 0.0
07:33 3.5 1.2 85 1016.1 5.4 N 10.7 0.0 0.0
07:34 3.5 1.2 85 1016.2 3.8 NE 10.7 0.0 0.0
07:35 3.5 1.2 85 1016.1 7.6 N 10.7 0.0 0.0
07:36 3.5 1.2 85 1016.2 4.5 N 10.7 0.0 0.0
07:37 3.5 1.2 85 1016.0 6.0 N 10.7 0.0 0.0
07:38 3.5 1.2 85 1016.1 5.4 S 10.7 0.0 0.0
07:39 3.5 1.2 85 1016.1 6.0 N 10.7 0.0 0.0
07:40 3.5 1.2 85 1016.1 5.4 N 7.6 0.0 0.0
07:41 3.5 1.2 85 1016.0 4.5 S 7.6 0.0 0.0
07:42 3.5 1.2 85 1016.2 8.3 N 8.3 0.0 0.0
07:43 3.5 1.2 85 1016.1 5.4 N 8.3 0.0 0.0
07:44 3.5 1.2 85 1016.1 11.4 N 11.4 0.0 0.0
07:45 3.5 1.2 85 1016.0 8.3 N 11.4 0.0 0.0
07:46 3.5 1.2 85 1016.2 6.0 SE 11.4 0.0 0.0
07:47 3.5 1.2 85 1016.0 5.4 N 11.4 0.0 0.0
07:48 3.5 1.2 85 1016.1 5.4 NE 11.4 0.0 0.0
07:49 3.5 1.2 85 1016.2 8.3 N 11.4 0.0 0.0
07:50 3.5 1.2 85 1016.1 6.0 N 11.4 0.0 0.0
07:51 3.5 1.2 85 1016.0 6.0 NNE 11.4 0.0 0.0
07:52 3.5 1.2 85 1016.2 3.8 NNE 11.4 0.0 0.0
07:53 3.5 1.2 85 1016.2 3.1 NNE 11.4 0.0 0.0
07:54 3.5 1.2 85 1016.2 4.5 NNW 11.4 0.0 0.0
07:55 3.5 1.2 85 1016.2 3.8 NE 8.3 0.0 0.0
07:56 3.5 1.2 85 1016.2 8.3 N 8.3 0.0 0.0
07:57 3.5 1.2 85 1016.2 6.0 NE 8.3 0.0 0.0
07:58 3.5 1.2 85 1016.2 3.8 NE 8.3 0.0 0.0
07:59 3.5 1.2 85 1016.2 4.5 N 8.3 0.0 0.0
08:00 3.5 1.2 85 1016.4 3.8 NE 8.3 0.0 0.0
08:01 3.5 1.2 85 1016.3 5.4 N 8.3 0.0 0.0
08:02 3.5 1.2 85 1016.2 10.7 N 10.7 0.0 0.0
08:03 3.5 1.2 85 1016.1 6.0 NE 10.7 0.0 0.0
08:04 3.5 1.2 85 1016.1 6.0 N 10.7 0.0 0.0
08:05 3.5 1.2 85 1016.3 5.4 NE 10.7 0.0 0.0
08:06 3.6 1.3 85 1016.3 7.6 N 10.7 0.0 0.0
08:07 3.6 1.3 85 1016.2 9.8 NE 10.7 0.0 0.0
08:08 3.6 1.3 85 1016.2 5.4 NE 10.7 0.0 0.0
08:09 3.6 1.3 85 1016.2 8.3 NE 10.7 0.0 0.0
08:11 3.6 1.3 85 1016.1 5.4 N 10.7 0.0 0.0
08:12 3.7 1.4 85 1016.2 3.8 N 9.8 0.0 0.0
08:14 3.7 1.4 85 1016.4 3.8 N 9.8 0.0 0.0
08:15 3.7 1.4 85 1016.3 3.8 N 9.8 0.0 0.0
08:16 3.7 1.4 85 1016.3 3.8 N 9.8 0.0 0.0
08:17 3.7 1.4 85 1016.2 5.4 NE 9.8 0.0 0.0
08:18 3.7 1.4 85 1016.2 3.8 NE 8.3 0.0 0.0
08:19 3.8 1.5 85 1016.3 7.6 N 8.3 0.0 0.0
08:20 3.8 1.5 85 1016.2 4.5 NE 7.6 0.0 0.0
08:21 3.8 1.5 85 1016.2 6.9 E 7.6 0.0 0.0
08:22 3.8 1.5 85 1016.3 9.2 N 9.2 0.0 0.0
08:23 3.8 1.5 85 1016.3 4.5 N 9.2 0.0 0.0
08:24 3.8 1.5 85 1016.2 4.5 NE 9.2 0.0 0.0
08:25 3.7 1.4 85 1016.2 9.2 NE 9.2 0.0 0.0
08:26 3.8 1.5 85 1016.2 5.4 N 9.2 0.0 0.0
08:27 3.8 1.5 85 1016.3 6.0 N 9.2 0.0 0.0
08:28 3.8 1.5 85 1016.2 6.9 NE 9.2 0.0 0.0
08:29 3.8 1.3 84 1016.3 8.3 E 9.2 0.0 0.0
08:30 3.8 1.5 85 1016.2 3.1 NE 9.2 0.0 0.0
08:31 3.8 1.5 85 1016.4 4.5 NE 9.2 0.0 0.0
08:32 3.8 1.5 85 1016.4 2.2 N 9.2 0.0 0.0
08:33 3.8 1.5 85 1016.3 4.5 E 9.2 0.0 0.0
08:34 3.8 1.5 85 1016.5 4.5 NE 9.2 0.0 0.0
08:35 3.8 1.5 85 1016.4 3.8 N 9.2 0.0 0.0
08:36 3.9 1.6 85 1016.4 6.0 SW 9.2 0.0 0.0
08:37 3.9 1.6 85 1016.3 4.5 NE 9.2 0.0 0.0
08:38 3.9 1.6 85 1016.4 5.4 NE 9.2 0.0 0.0
08:39 3.9 1.6 85 1016.5 9.2 N 9.2 0.0 0.0
08:40 3.9 1.6 85 1016.4 6.9 NE 9.2 0.0 0.0
08:41 3.9 1.6 85 1016.3 5.4 NE 9.2 0.0 0.0
08:42 4.0 1.7 85 1016.3 6.0 N 9.2 0.0 0.0
08:43 4.0 1.7 85 1016.4 4.5 NE 9.2 0.0 0.0
08:44 4.0 1.7 85 1016.4 5.4 NE 9.2 0.0 0.0
08:45 4.0 1.7 85 1016.4 6.0 NE 9.2 0.0 0.0
08:46 4.0 1.7 85 1016.4 7.6 NE 9.2 0.0 0.0
08:47 4.0 1.7 85 1016.4 4.5 NE 9.2 0.0 0.0
08:48 4.1 1.8 85 1016.5 13.6 NE 13.6 0.0 0.0
08:49 4.1 1.8 85 1016.3 12.1 N 13.6 0.0 0.0
08:50 4.1 2.0 86 1016.4 6.0 N 13.6 0.0 0.0
08:51 4.1 2.0 86 1016.3 10.7 NE 13.6 0.0 0.0
08:52 4.1 2.0 86 1016.5 12.1 N 13.6 0.0 0.0
08:53 4.1 2.0 86 1016.4 10.7 NE 13.6 0.0 0.0
08:54 4.1 2.0 86 1016.5 9.8 NE 13.6 0.0 0.0
08:55 4.1 2.0 86 1016.4 11.4 NE 13.6 0.0 0.0
08:57 4.1 2.1 87 1016.4 9.8 NE 13.6 0.0 0.0
08:58 4.1 2.1 87 1016.3 9.8 NE 13.6 0.0 0.0
08:59 4.1 2.1 87 1016.3 15.2 N 15.2 0.0 0.0
09:00 4.1 2.1 87 1016.5 6.0 NE 15.2 0.0 0.0
09:01 4.1 2.1 87 1016.3 13.0 N 15.2 0.0 0.0
09:02 4.1 2.1 87 1016.5 9.8 E 15.2 0.0 0.0
09:03 4.1 2.1 87 1016.2 9.2 NE 15.2 0.0 0.0
09:04 4.1 2.1 87 1016.4 9.2 NE 15.2 0.0 0.0
09:05 4.1 2.3 88 1016.3 13.6 NE 15.2 0.0 0.0
09:06 4.1 2.3 88 1016.3 13.6 NE 15.2 0.0 0.0
09:07 4.1 2.3 88 1016.5 18.3 NE 18.3 0.0 0.0
09:08 4.1 2.3 88 1016.5 12.1 NE 18.3 0.0 0.0
09:09 4.1 2.3 88 1016.3 9.2 E 18.3 0.0 0.0
09:10 4.1 2.3 88 1016.4 7.6 NE 18.3 0.0 0.0
09:11 4.1 2.3 88 1016.4 7.6 NE 18.3 0.0 0.0
09:12 4.1 2.3 88 1016.4 11.4 N 18.3 0.0 0.0
09:13 4.1 2.3 88 1016.3 11.4 N 18.3 0.0 0.0
09:14 4.1 2.3 88 1016.4 11.4 N 18.3 0.0 0.0
09:15 4.1 2.3 88 1016.4 11.4 N 18.3 0.0 0.0
09:16 4.1 2.3 88 1016.4 11.4 N 18.3 0.0 0.0
09:17 4.2 2.4 88 1016.4 9.8 NE 18.3 0.0 0.0
09:18 4.1 2.3 88 1016.3 15.9 NE 15.9 0.0 0.0
09:19 4.2 2.4 88 1016.4 9.8 NE 15.9 0.0 0.0
09:20 4.1 2.5 89 1016.4 9.2 NE 15.9 0.0 0.0
09:21 4.2 2.6 89 1016.5 9.8 NE 15.9 0.0 0.0
09:22 4.2 2.6 89 1016.5 13.6 NE 15.9 0.0 0.0
09:23 4.2 2.6 89 1016.5 6.0 N 15.9 0.0 0.0
09:24 4.2 2.6 89 1016.4 17.4 NE 17.4 0.0 0.0
09:25 4.2 2.6 89 1016.4 9.2 NE 17.4 0.0 0.0
09:26 4.2 2.6 89 1016.4 9.2 NE 17.4 0.0 0.0
09:27 4.3 2.7 89 1016.5 6.9 N 17.4 0.0 0.0
09:28 4.3 2.7 89 1016.5 6.9 E 17.4 0.0 0.0
09:29 4.3 2.7 89 1016.5 11.4 NE 17.4 0.0 0.0
09:30 4.3 2.7 89 1016.5 9.2 NE 17.4 0.0 0.0
09:31 4.3 2.7 89 1016.5 6.0 NE 17.4 0.0 0.0
09:32 4.4 2.7 89 1016.4 8.3 N 17.4 0.0 0.0
09:33 4.4 2.7 89 1016.4 15.2 N 17.4 0.0 0.0
09:34 4.4 2.7 89 1016.6 9.2 N 15.2 0.0 0.0
09:35 4.4 2.7 89 1016.5 14.5 N 15.2 0.0 0.0
09:36 4.4 2.7 89 1016.6 12.1 NE 15.2 0.0 0.0
09:37 4.4 2.7 89 1016.5 8.3 NE 15.2 0.0 0.0
09:38 4.4 2.7 89 1016.6 7.6 N 15.2 0.0 0.0
09:39 4.4 2.7 89 1016.6 9.8 NE 15.2 0.0 0.0
09:40 4.5 2.8 89 1016.6 9.8 N 15.2 0.0 0.0
09:41 4.4 2.7 89 1016.5 9.8 N 15.2 0.0 0.0
09:42 4.5 2.8 89 1016.5 13.0 NE 15.2 0.0 0.0
09:44 4.5 2.8 89 1016.5 11.4 N 14.5 0.0 0.0
09:45 4.5 2.8 89 1016.5 9.2 NE 14.5 0.0 0.0
09:46 4.5 2.8 89 1016.5 10.7 NE 13.0 0.0 0.0
09:47 4.5 2.8 89 1016.6 11.4 N 13.0 0.0 0.0
09:48 4.5 2.8 89 1016.6 12.1 N 13.0 0.0 0.0
09:49 4.5 2.8 89 1016.4 13.6 NE 13.6 0.0 0.0
09:50 4.5 2.8 89 1016.5 15.2 NE 15.2 0.0 0.0
09:51 4.5 2.8 89 1016.5 15.2 NE 15.2 0.0 0.0
09:52 4.5 2.8 89 1016.5 13.6 NE 15.2 0.0 0.0
09:53 4.5 2.8 89 1016.6 8.3 N 15.2 0.0 0.0
09:54 4.4 2.7 89 1016.5 10.7 NE 15.2 0.0 0.0
09:55 4.5 2.8 89 1016.6 6.9 NE 15.2 0.0 0.0
09:56 4.5 2.8 89 1016.6 9.8 NE 15.2 0.0 0.0
09:57 4.5 2.8 89 1016.4 9.8 NE 15.2 0.0 0.0
09:58 4.5 2.8 89 1016.3 9.8 NE 15.2 0.0 0.0
09:59 4.5 2.8 89 1016.2 10.7 NE 15.2 0.0 0.0
10:00 4.5 2.8 89 1016.3 9.8 NE 14.5 0.0 0.0
10:02 4.6 3.1 90 1016.5 7.6 N 14.5 0.0 0.0
10:03 4.6 3.1 90 1016.3 6.0 NE 14.5 0.0 0.0
10:04 4.6 3.1 90 1016.4 8.3 NE 14.5 0.0 0.0
10:05 4.6 3.1 90 1016.4 13.0 N 14.5 0.0 0.0
10:06 4.6 3.1 90 1016.4 13.6 NE 14.5 0.0 0.0
10:07 4.7 3.2 90 1016.4 11.4 NE 15.2 0.0 0.0
10:08 4.7 3.2 90 1016.4 15.2 N 15.2 0.0 0.0
10:10 4.8 3.3 90 1016.3 12.1 NE 15.2 0.0 0.0
10:11 4.7 3.2 90 1016.5 9.2 N 15.2 0.0 0.0
10:13 4.7 3.2 90 1016.5 9.2 N 15.2 0.0 0.0
10:14 5.0 3.5 90 1016.4 10.7 NE 15.2 0.0 0.0
10:16 5.0 3.5 90 1016.4 12.1 NE 15.2 0.0 0.0
10:17 5.0 3.5 90 1016.5 15.2 NW 15.2 0.0 0.0
10:18 5.1 3.6 90 1016.5 8.3 N 15.2 0.0 0.0
10:19 5.1 3.6 90 1016.6 7.6 NE 15.2 0.0 0.0
10:20 5.1 3.6 90 1016.5 5.4 NW 15.2 0.0 0.0
10:21 5.0 3.5 90 1016.5 12.1 NE 15.2 0.0 0.0
10:22 5.1 3.6 90 1016.6 13.0 N 15.9 0.0 0.0
10:23 5.1 3.6 90 1016.6 9.8 N 15.9 0.0 0.0
10:24 5.1 3.4 89 1016.5 10.7 N 15.9 0.0 0.0
10:25 5.1 3.6 90 1016.7 17.4 NE 17.4 0.0 0.0
10:26 5.1 3.4 89 1016.5 12.1 N 17.4 0.0 0.0
10:27 5.1 3.4 89 1016.7 13.0 NE 17.4 0.0 0.0
10:28 5.1 3.4 89 1016.5 20.6 NE 20.6 0.0 0.0
10:29 5.1 3.4 89 1016.7 9.8 NE 20.6 0.0 0.0
10:30 5.1 3.4 89 1016.8 13.0 NE 20.6 0.0 0.0
10:31 5.1 3.4 89 1016.6 10.7 NE 20.6 0.0 0.0
10:32 5.1 3.4 89 1016.7 15.2 NE 20.6 0.0 0.0
10:33 5.1 3.4 89 1016.7 9.8 NE 20.6 0.0 0.0
10:34 5.1 3.4 89 1016.7 12.1 NE 20.6 0.0 0.0
10:35 5.1 3.4 89 1016.7 13.0 NE 20.6 0.0 0.0
10:36 5.1 3.4 89 1016.6 11.4 WSW 20.6 0.0 0.0
10:37 5.1 3.4 89 1016.5 7.6 NE 20.6 0.0 0.0
10:38 5.1 3.4 89 1016.7 13.6 NE 19.0 0.0 0.0
10:39 5.1 3.4 89 1016.6 10.7 N 19.0 0.0 0.0
10:40 5.1 3.4 89 1016.7 18.3 N 18.3 0.0 0.0
10:41 5.1 3.4 89 1016.7 14.5 NE 18.3 0.0 0.0
10:42 5.0 3.3 89 1016.7 11.4 N 18.3 0.0 0.0
10:43 5.0 3.3 89 1016.7 13.6 NE 18.3 0.0 0.0
10:44 5.0 3.3 89 1016.8 8.3 NE 18.3 0.0 0.0
10:45 5.0 3.3 89 1016.8 5.4 NE 18.3 0.0 0.0
10:46 4.9 3.2 89 1016.7 14.5 N 18.3 0.0 0.0
10:47 4.9 3.2 89 1016.7 11.4 N 18.3 0.0 0.0
10:48 4.9 3.2 89 1016.8 13.6 N 18.3 0.0 0.0
10:49 4.9 3.2 89 1016.8 11.4 NE 18.3 0.0 0.0
10:50 4.9 3.2 89 1016.8 11.4 E 18.3 0.0 0.0
10:51 4.9 3.2 89 1016.7 8.3 NE 16.8 0.0 0.0
10:52 4.9 3.2 89 1016.8 5.4 NE 16.8 0.0 0.0
10:53 4.9 3.2 89 1016.7 10.7 N 16.8 0.0 0.0
10:54 5.0 3.3 89 1016.6 13.0 NE 16.8 0.0 0.0
10:55 5.0 3.3 89 1016.8 13.0 NE 16.8 0.0 0.0
10:56 5.0 3.3 89 1016.6 13.6 NE 14.5 0.0 0.0
10:57 5.0 3.3 89 1016.8 6.9 NE 13.6 0.0 0.0
10:58 5.1 3.4 89 1016.7 11.4 NE 13.6 0.0 0.0
11:00 5.1 3.4 89 1016.7 7.6 N 13.6 0.0 0.0
11:01 5.1 3.4 89 1016.7 9.2 NE 13.6 0.0 0.0
11:02 5.1 3.4 89 1016.8 7.6 NE 16.8 0.0 0.0
11:03 5.1 3.4 89 1016.6 10.7 NE 16.8 0.0 0.0
11:04 5.1 3.4 89 1016.7 6.9 NE 16.8 0.0 0.0
11:05 5.1 3.4 89 1016.7 9.8 NE 16.8 0.0 0.0
11:06 5.1 3.4 89 1016.7 9.8 SW 16.8 0.0 0.0
11:07 5.1 3.4 89 1016.7 9.8 NE 16.8 0.0 0.0
11:08 5.1 3.4 89 1016.6 13.0 NE 16.8 0.0 0.0
11:09 5.1 3.4 89 1016.8 12.1 NE 16.8 0.0 0.0
11:10 5.2 3.5 89 1016.7 12.1 NE 16.8 0.0 0.0
11:11 5.1 3.4 89 1016.7 6.0 NE 16.8 0.0 0.0
11:12 5.2 3.5 89 1016.7 7.6 NE 13.0 0.0 0.0
11:13 5.2 3.5 89 1016.6 7.6 NE 13.0 0.0 0.0
11:14 5.2 3.5 89 1016.6 7.6 NE 13.0 0.0 0.0
11:15 5.2 3.5 89 1016.7 7.6 NE 13.0 0.0 0.0
11:16 5.2 3.5 89 1016.7 7.6 NE 13.0 0.0 0.0
11:17 5.4 3.7 89 1016.7 6.0 NE 13.0 0.0 0.0
11:18 5.4 3.7 89 1016.8 13.6 NE 13.6 0.0 0.0
11:19 5.4 3.7 89 1016.7 10.7 NE 13.6 0.0 0.0
11:20 5.4 3.7 89 1016.7 16.8 N 16.8 0.0 0.0
11:21 5.5 3.8 89 1016.8 13.6 NE 16.8 0.0 0.0
11:22 5.5 3.8 89 1016.7 13.6 N 16.8 0.0 0.0
11:23 5.5 3.8 89 1016.6 9.2 NE 16.8 0.0 0.0
11:24 5.5 3.8 89 1016.7 9.2 N 16.8 0.0 0.0
11:25 5.5 3.8 89 1016.9 10.7 NE 16.8 0.0 0.0
11:26 5.5 3.8 89 1016.9 10.7 N 16.8 0.0 0.0
11:27 5.5 3.8 89 1016.8 12.1 N 16.8 0.0 0.0
11:28 5.5 3.8 89 1016.8 6.9 NE 16.8 0.0 0.0
11:29 5.5 3.8 89 1016.8 13.0 NE 16.8 0.0 0.0
11:30 5.6 3.9 89 1016.7 11.4 N 13.6 0.0 0.0
11:31 5.6 3.9 89 1016.9 12.1 NE 15.2 0.0 0.0
11:32 5.6 3.9 89 1016.9 12.1 NE 15.2 0.0 0.0
11:33 5.6 3.8 88 1016.9 6.9 NE 15.2 0.0 0.0
11:34 5.6 3.8 88 1017.0 7.6 N 15.2 0.0 0.0
11:35 5.6 3.8 88 1017.0 10.7 N 15.2 0.0 0.0
11:36 5.6 3.8 88 1016.9 10.7 N 15.2 0.0 0.0
11:37 5.7 3.9 88 1017.1 11.4 NE 15.2 0.0 0.0
11:38 5.7 3.9 88 1016.8 9.8 N 15.2 0.0 0.0
11:39 5.7 3.9 88 1016.9 6.0 N 15.2 0.0 0.0
11:40 5.7 3.9 88 1016.8 6.9 NE 15.2 0.0 0.0
11:41 5.7 3.9 88 1016.7 18.3 SW 18.3 0.0 0.0
11:42 5.6 3.8 88 1016.7 12.1 NNW 18.3 0.0 0.0
11:43 5.7 3.9 88 1016.8 11.4 N 18.3 0.0 0.0
11:44 5.6 3.8 88 1016.9 9.8 NE 18.3 0.0 0.0
11:45 5.7 3.9 88 1016.9 9.8 N 18.3 0.0 0.0
11:46 5.7 3.9 88 1016.9 13.0 NE 18.3 0.0 0.0
11:47 5.7 3.9 88 1016.8 16.8 N 18.3 0.0 0.0
11:48 5.6 3.8 88 1016.9 15.2 NE 18.3 0.0 0.0
11:49 5.6 3.8 88 1016.7 8.3 NE 18.3 0.0 0.0
11:50 5.6 3.8 88 1016.9 10.7 NE 18.3 0.0 0.0
11:51 5.6 3.6 87 1017.0 9.2 N 16.8 0.0 0.0
11:52 5.6 3.6 87 1017.0 13.0 N 16.8 0.0 0.0
11:53 5.6 3.6 87 1017.0 10.7 NE 16.8 0.0 0.0
11:54 5.5 3.5 87 1016.9 6.9 NE 16.8 0.0 0.0
11:55 5.5 3.5 87 1016.9 10.7 N 16.8 0.0 0.0
11:56 5.5 3.5 87 1017.1 10.7 N 16.8 0.0 0.0
11:57 5.5 3.5 87 1017.2 13.0 NE 16.8 0.0 0.0
11:59 5.5 3.5 87 1017.0 9.2 NE 13.0 0.0 0.0
12:00 5.4 3.4 87 1017.0 12.1 NE 13.0 0.0 0.0
12:01 5.4 3.4 87 1016.9 18.3 NE 18.3 0.0 0.0
12:02 5.4 3.4 87 1016.9 11.4 NW 18.3 0.0 0.0
12:03 5.3 3.3 87 1016.9 16.8 NE 18.3 0.0 0.0
12:04 5.3 3.3 87 1016.9 10.7 NE 18.3 0.0 0.0
12:05 5.3 3.3 87 1016.9 10.7 N 18.3 0.0 0.0
12:06 5.3 3.3 87 1016.9 6.0 NE 18.3 0.0 0.0
12:07 5.2 3.2 87 1017.0 7.6 NE 18.3 0.0 0.0
12:08 5.2 3.2 87 1017.0 11.4 NE 18.3 0.0 0.0
12:09 5.2 3.2 87 1016.9 11.4 N 18.3 0.0 0.0
12:10 5.1 3.1 87 1017.0 11.4 NE 18.3 0.0 0.0
12:12 5.2 3.2 87 1016.9 13.6 NE 16.8 0.0 0.0
12:13 5.2 3.2 87 1016.8 13.6 NE 14.5 0.0 0.0
12:15 5.1 3.1 87 1016.8 13.6 NE 14.5 0.0 0.0
12:16 5.0 3.0 87 1016.9 9.8 NW 14.5 0.0 0.0
12:17 5.0 3.0 87 1016.8 12.1 NE 14.5 0.0 0.0
12:18 5.0 3.0 87 1016.9 9.8 NW 14.5 0.0 0.0
12:19 5.0 3.0 87 1016.9 9.2 NE 15.9 0.0 0.0
12:20 5.0 3.0 87 1016.8 10.7 NE 15.9 0.0 0.0
12:21 5.0 3.0 87 1016.8 15.2 N 15.9 0.0 0.0
12:22 5.0 3.0 87 1016.9 15.9 NE 15.9 0.0 0.0
12:24 5.0 3.0 87 1016.9 12.1 NE 15.9 0.0 0.0
12:25 5.0 3.0 87 1016.9 12.1 NE 15.9 0.0 0.0
12:26 5.0 3.0 87 1016.9 12.1 NE 15.9 0.0 0.0
12:27 4.9 2.9 87 1017.0 13.0 NE 15.9 0.0 0.0
12:28 4.9 2.9 87 1016.9 8.3 NE 15.9 0.0 0.0
12:29 4.8 2.8 87 1016.9 11.4 N 15.9 0.0 0.0
12:30 4.9 2.9 87 1017.0 8.3 N 15.9 0.0 0.0
12:31 4.9 2.9 87 1017.0 8.3 N 15.9 0.0 0.0
12:32 4.9 2.9 87 1016.8 7.6 NE 15.9 0.0 0.0
12:33 4.8 2.8 87 1017.0 9.8 NE 19.7 0.0 0.0
12:34 4.8 2.8 87 1016.9 13.6 N 19.7 0.0 0.0
12:35 4.8 2.8 87 1017.0 9.8 N 19.7 0.0 0.0
12:36 4.8 2.8 87 1017.0 9.2 N 19.7 0.0 0.0
12:37 4.8 2.8 87 1017.0 10.7 NE 19.7 0.0 0.0
12:38 4.8 2.8 87 1017.0 15.2 N 19.7 0.0 0.0
12:39 4.7 2.7 87 1016.9 15.9 NE 19.7 0.0 0.0
12:40 4.7 2.7 87 1017.0 11.4 N 19.7 0.0 0.0
12:41 4.8 2.8 87 1017.0 12.1 NE 19.7 0.0 0.0
12:42 4.7 2.7 87 1017.0 16.8 NW 19.7 0.0 0.0
12:43 4.7 2.7 87 1016.9 14.5 NW 16.8 0.0 0.0
12:44 4.7 2.7 87 1016.9 11.4 N 16.8 0.0 0.0
12:45 4.7 2.7 87 1017.0 9.8 NE 16.8 0.0 0.0
12:46 4.7 2.7 87 1017.0 9.8 NE 16.8 0.0 0.0
12:47 4.7 2.7 87 1017.0 12.1 NE 16.8 0.0 0.0
12:48 4.7 2.7 87 1016.8 4.5 NE 16.8 0.0 0.0
12:49 4.7 2.9 88 1016.9 8.3 N 16.8 0.0 0.0
12:50 4.8 2.8 87 1016.9 11.4 E 16.8 0.0 0.0
12:51 4.8 2.8 87 1016.9 11.4 E 16.8 0.0 0.0
12:52 4.8 2.8 87 1017.0 6.0 NE 14.5 0.0 0.0
12:53 4.7 2.7 87 1016.9 15.2 NE 15.2 0.0 0.0
12:54 4.8 3.0 88 1016.8 16.8 NE 16.8 0.0 0.0
12:55 4.8 2.8 87 1016.8 7.6 NE 16.8 0.0 0.0
12:56 4.7 2.7 87 1016.9 9.8 NE 16.8 0.0 0.0
12:57 4.7 2.7 87 1016.9 6.9 NE 16.8 0.0 0.0
12:58 4.7 2.7 87 1016.9 5.4 N 16.8 0.0 0.0
12:59 4.7 2.7 87 1017.1 11.4 NE 16.8 0.0 0.0
13:00 4.7 2.7 87 1017.0 8.3 E 16.8 0.0 0.0
13:01 4.7 2.7 87 1016.9 14.5 NE 16.8 0.0 0.0
13:02 4.7 2.7 87 1017.0 8.3 NE 16.8 0.0 0.0
13:03 4.7 2.7 87 1016.9 13.6 NE 16.8 0.0 0.0
13:04 4.7 2.7 87 1016.8 14.5 NE 14.5 0.0 0.0
13:05 4.7 2.7 87 1017.1 9.8 NE 14.5 0.0 0.0
13:06 4.7 2.7 87 1017.1 12.1 NE 14.5 0.0 0.0
13:07 4.6 2.6 87 1016.9 13.0 NE 14.5 0.0 0.0
13:08 4.6 2.6 87 1016.9 15.2 E 15.2 0.0 0.0
13:09 4.6 2.6 87 1017.0 15.2 E 15.2 0.0 0.0
13:10 4.6 2.6 87 1017.0 13.6 NE 15.2 0.0 0.0
13:11 4.6 2.6 87 1017.0 6.9 N 15.2 0.0 0.0
13:12 4.6 2.6 87 1017.0 6.9 N 15.2 0.0 0.0
13:13 4.6 2.6 87 1017.1 6.9 N 15.2 0.0 0.0
13:14 4.6 2.6 87 1017.1 6.9 N 15.2 0.0 0.0
13:15 4.6 2.6 87 1017.1 6.9 N 15.2 0.0 0.0
13:16 4.6 2.6 87 1017.1 6.9 N 15.2 0.0 0.0
13:17 4.6 2.6 87 1017.1 6.9 N 15.2 0.0 0.0
13:19 4.5 2.7 88 1017.1 13.6 NE 15.2 0.0 0.0
13:20 4.5 2.5 87 1017.1 9.8 NE 13.6 0.0 0.0
13:21 4.6 2.8 88 1017.1 8.3 N 13.6 0.0 0.0
13:22 4.6 2.8 88 1017.0 6.9 N 13.6 0.0 0.0
13:23 4.6 2.8 88 1017.1 8.3 N 13.6 0.0 0.0
13:24 4.6 2.8 88 1017.0 13.0 NE 13.6 0.0 0.0
13:25 4.6 2.8 88 1017.0 11.4 N 13.6 0.0 0.0
13:26 4.6 2.8 88 1017.0 9.8 N 13.6 0.0 0.0
13:27 4.6 2.8 88 1016.8 6.9 N 13.6 0.0 0.0
13:28 4.6 2.8 88 1016.9 14.5 NE 14.5 0.0 0.0
13:29 4.6 2.8 88 1016.8 13.6 NE 14.5 0.0 0.0
13:30 4.6 2.8 88 1016.9 5.4 N 14.5 0.0 0.0
13:31 4.6 2.8 88 1016.8 13.6 NE 14.5 0.0 0.0
13:32 4.7 2.9 88 1017.0 14.5 NE 15.9 0.0 0.0
13:33 4.7 2.9 88 1017.0 8.3 NE 15.9 0.0 0.0
13:34 4.7 2.9 88 1017.0 9.2 NE 15.9 0.0 0.0
13:35 4.7 2.9 88 1016.9 15.9 N 15.9 0.0 0.0
13:36 4.8 3.0 88 1016.9 12.1 NE 15.9 0.0 0.0
13:37 4.7 2.9 88 1016.9 6.9 NE 15.9 0.0 0.0
13:38 4.8 3.0 88 1016.8 7.6 N 15.9 0.0 0.0
13:39 4.8 3.0 88 1016.8 10.7 NE 15.9 0.0 0.0
13:40 4.8 3.0 88 1016.8 13.0 N 15.9 0.0 0.0
13:41 4.9 3.1 88 1016.8 14.5 NE 15.9 0.0 0.0
13:42 4.9 3.1 88 1016.9 14.5 NW 15.9 0.0 0.0
13:43 4.9 3.1 88 1016.9 7.6 NE 15.9 0.0 0.0
13:44 4.9 3.1 88 1016.7 12.1 NE 15.9 0.0 0.0
13:45 4.9 3.1 88 1016.9 14.5 E 15.9 0.0 0.0
13:46 4.9 3.1 88 1016.8 9.8 N 14.5 0.0 0.0
13:47 4.9 3.1 88 1016.9 10.7 N 14.5 0.0 0.0
13:49 4.9 3.1 88 1016.7 13.6 NE 14.5 0.0 0.0
13:50 4.9 3.1 88 1016.7 11.4 NE 14.5 0.0 0.0
13:51 4.9 3.1 88 1016.9 14.5 NE 14.5 0.0 0.0
13:52 4.9 3.1 88 1016.7 9.2 NE 14.5 0.0 0.0
13:53 4.9 3.1 88 1016.8 9.8 NE 14.5 0.0 0.0
13:54 5.0 3.2 88 1016.7 8.3 NE 14.5 0.0 0.0
13:55 4.9 3.1 88 1016.8 13.6 NE 14.5 0.0 0.0
13:56 4.9 3.1 88 1016.9 4.5 N 14.5 0.0 0.0
13:57 5.0 3.2 88 1016.8 8.3 NE 14.5 0.0 0.0
13:58 5.0 3.2 88 1016.8 11.4 NE 14.5 0.0 0.0
13:59 5.0 3.2 88 1016.8 12.1 NE 14.5 0.0 0.0
14:00 5.0 3.2 88 1016.9 13.0 N 14.5 0.0 0.0
14:01 5.0 3.2 88 1016.9 13.6 NE 14.5 0.0 0.0
14:02 5.0 3.2 88 1016.8 15.2 NW 15.2 0.0 0.0
14:03 5.0 3.2 88 1016.9 12.1 NE 15.2 0.0 0.0
14:04 5.0 3.2 88 1016.9 9.8 NE 15.2 0.0 0.0
14:05 5.0 3.2 88 1016.9 10.7 N 15.2 0.0 0.0
14:06 5.0 3.2 88 1016.9 9.8 NE 16.8 0.0 0.0
14:07 4.9 3.1 88 1016.9 15.2 NE 16.8 0.0 0.0
14:08 5.0 3.2 88 1016.8 16.8 NE 16.8 0.0 0.0
14:09 5.0 3.2 88 1016.8 13.6 NW 16.8 0.0 0.0
14:10 4.9 3.1 88 1016.8 6.0 NW 16.8 0.0 0.0
14:12 4.9 3.1 88 1016.8 17.4 N 17.4 0.0 0.0
14:13 4.9 3.1 88 1016.8 9.2 N 17.4 0.0 0.0
14:15 4.9 3.1 88 1016.9 9.2 N 17.4 0.0 0.0
14:16 4.9 3.1 88 1017.0 9.2 N 17.4 0.0 0.0
14:17 4.9 3.1 88 1016.9 9.2 N 17.4 0.0 0.0
14:18 4.9 3.1 88 1016.8 12.1 NE 17.4 0.0 0.0
14:19 4.8 3.0 88 1016.8 12.1 NE 17.4 0.0 0.0
14:21 4.8 3.0 88 1016.8 12.1 NE 17.4 0.0 0.0
14:22 4.8 3.0 88 1016.8 9.2 N 13.6 0.0 0.0
14:23 4.8 3.0 88 1016.6 12.1 NE 13.6 0.0 0.0
14:24 4.8 3.0 88 1016.8 13.6 NW 13.6 0.0 0.0
14:25 4.7 2.9 88 1016.8 7.6 NE 13.6 0.0 0.0
14:26 4.7 2.9 88 1016.8 9.2 NE 13.6 0.0 0.0
14:27 4.7 2.9 88 1016.8 13.0 NE 13.6 0.0 0.0
14:28 4.7 2.9 88 1016.7 13.6 NE 13.6 0.0 0.0
14:29 4.7 2.9 88 1016.9 13.0 NE 13.6 0.0 0.0
14:30 4.7 2.9 88 1016.8 8.3 NE 13.6 0.0 0.0
14:31 4.7 2.9 88 1016.8 12.1 SE 13.6 0.0 0.0
14:32 4.7 2.9 88 1016.9 9.2 NE 13.6 0.0 0.0
14:33 4.7 2.9 88 1016.9 9.2 NE 13.6 0.0 0.0
14:34 4.7 2.9 88 1016.9 15.2 NE 15.2 0.0 0.0
14:35 4.7 2.9 88 1016.8 8.3 NW 15.2 0.0 0.0
14:36 4.7 2.9 88 1017.0 6.9 N 15.2 0.0 0.0
14:37 4.7 2.9 88 1017.0 9.2 SE 15.2 0.0 0.0
14:38 4.7 2.9 88 1016.8 7.6 NE 15.2 0.0 0.0
14:39 4.7 2.9 88 1016.8 7.6 NE 15.2 0.0 0.0
14:40 4.7 2.9 88 1016.8 8.3 NE 15.2 0.0 0.0
14:41 4.7 2.9 88 1016.8 12.1 NE 15.2 0.0 0.0
14:42 4.7 2.9 88 1016.9 10.7 N 15.2 0.0 0.0
14:43 4.7 2.9 88 1016.9 15.2 NW 15.2 0.0 0.0
14:44 4.7 2.9 88 1017.0 11.4 NE 15.2 0.0 0.0
14:45 4.7 2.9 88 1017.0 15.9 NE 15.9 0.0 0.0
14:46 4.7 2.9 88 1017.0 15.2 NE 15.9 0.0 0.0
14:47 4.6 2.8 88 1016.9 9.2 N 15.9 0.0 0.0
14:48 4.7 2.7 87 1016.8 9.8 N 15.9 0.0 0.0
14:49 4.6 2.8 88 1016.9 14.5 NE 15.9 0.0 0.0
14:50 4.6 2.8 88 1016.8 10.7 NE 15.9 0.0 0.0
14:51 4.6 2.8 88 1017.1 9.8 NE 15.9 0.0 0.0
14:52 4.6 2.6 87 1016.8 10.7 N 15.9 0.0 0.0
14:53 4.6 2.8 88 1017.0 13.0 NE 15.9 0.0 0.0
14:54 4.6 2.8 88 1016.9 12.1 NE 15.9 0.0 0.0
14:55 4.6 2.8 88 1016.9 17.4 NE 17.4 0.0 0.0
14:56 4.6 2.8 88 1016.9 13.0 NE 17.4 0.0 0.0
14:57 4.6 2.8 88 1016.8 17.4 NE 17.4 0.0 0.0
14:58 4.6 2.6 87 1017.0 6.0 NE 17.4 0.0 0.0
14:59 4.6 2.6 87 1016.9 8.3 N 17.4 0.0 0.0
15:00 4.6 2.8 88 1016.9 10.7 N 17.4 0.0 0.0
15:01 4.5 2.5 87 1016.8 8.3 E 17.4 0.0 0.0
15:02 4.5 2.5 87 1016.8 13.0 NNE 17.4 0.0 0.0
15:04 4.5 2.7 88 1017.0 4.5 NNE 17.4 0.0 0.0
15:05 4.5 2.5 87 1017.0 12.1 E 17.4 0.0 0.0
15:06 4.5 2.5 87 1017.0 9.8 N 17.4 0.0 0.0
15:07 4.5 2.7 88 1017.1 8.3 NE 17.4 0.0 0.0
15:08 4.5 2.5 87 1016.9 11.4 N 13.6 0.0 0.0
15:09 4.5 2.7 88 1016.9 8.3 NE 13.6 0.0 0.0
15:10 4.4 2.6 88 1016.9 9.2 NE 13.6 0.0 0.0
15:11 4.4 2.4 87 1016.9 12.1 NE 13.6 0.0 0.0
15:12 4.4 2.4 87 1017.0 13.0 WNW 13.6 0.0 0.0
15:13 4.4 2.4 87 1016.9 14.5 NE 14.5 0.0 0.0
15:14 4.4 2.4 87 1017.0 14.5 NE 14.5 0.0 0.0
15:15 4.4 2.4 87 1017.1 14.5 NE 14.5 0.0 0.0
15:16 4.4 2.4 87 1016.9 14.5 NE 14.5 0.0 0.0
15:17 4.4 2.4 87 1017.0 14.5 NE 14.5 0.0 0.0
15:18 4.3 2.3 87 1017.0 13.6 N 14.5 0.0 0.0
15:19 4.2 2.2 87 1017.0 15.2 NE 15.2 0.0 0.0
15:20 4.2 2.2 87 1016.9 9.8 NE 15.2 0.0 0.0
15:21 4.2 2.4 88 1016.9 15.9 NE 15.9 0.0 0.0
15:22 4.2 2.4 88 1016.7 10.7 NE 15.9 0.0 0.0
15:23 4.2 2.4 88 1016.8 14.5 NE 15.9 0.0 0.0
15:24 4.2 2.4 88 1016.9 12.1 NE 15.9 0.0 0.0
15:25 4.2 2.4 88 1016.9 10.7 NE 15.9 0.0 0.0
15:26 4.2 2.4 88 1016.9 8.3 NE 15.9 0.0 0.0
15:27 4.1 2.3 88 1016.8 10.7 NE 15.9 0.0 0.0
15:28 4.1 2.3 88 1016.8 11.4 NE 15.9 0.0 0.0
15:29 4.1 2.3 88 1016.8 10.7 NE 15.9 0.0 0.0
15:30 4.1 2.3 88 1016.8 11.4 N 15.9 0.0 0.0
15:31 4.1 2.3 88 1016.8 10.7 NE 14.5 0.0 0.0
15:32 4.1 2.3 88 1016.7 12.1 NE 14.5 0.0 0.0
15:33 4.1 2.3 88 1016.7 14.5 NE 14.5 0.0 0.0
15:34 4.1 2.3 88 1016.8 13.6 NE 14.5 0.0 0.0
15:35 4.1 2.3 88 1016.7 8.3 NE 14.5 0.0 0.0
15:36 4.0 2.2 88 1016.6 9.8 NE 14.5 0.0 0.0
15:37 4.0 2.2 88 1016.7 12.1 E 14.5 0.0 0.0
15:38 4.0 2.2 88 1016.8 10.7 N 14.5 0.0 0.0
15:39 4.0 2.2 88 1016.8 9.2 NE 14.5 0.0 0.0
15:41 4.0 2.2 88 1016.7 6.0 NE 14.5 0.0 0.0
15:42 4.0 2.2 88 1016.7 12.1 NE 14.5 0.0 0.0
15:43 4.0 2.2 88 1016.6 9.8 N 14.5 0.0 0.0
15:44 4.0 2.2 88 1016.8 12.1 N 19.7 0.0 0.0
15:45 4.1 2.3 88 1016.7 12.1 NE 19.7 0.0 0.0
15:46 4.1 2.3 88 1016.7 6.0 NE 19.7 0.0 0.0
15:47 4.1 2.3 88 1016.6 7.6 NE 19.7 0.0 0.0
15:48 4.1 2.3 88 1016.8 7.6 N 19.7 0.0 0.0
15:49 4.1 2.3 88 1016.7 6.9 N 19.7 0.0 0.0
15:50 4.1 2.3 88 1016.8 7.6 N 19.7 0.0 0.0
15:51 4.1 2.3 88 1016.6 7.6 NE 19.7 0.0 0.0
15:52 4.1 2.3 88 1016.8 8.3 N 19.7 0.0 0.0
15:53 4.1 2.3 88 1016.7 13.0 NE 19.7 0.0 0.0
15:54 4.1 2.3 88 1016.6 10.7 NE 13.6 0.0 0.0
15:55 4.1 2.3 88 1016.7 13.6 N 13.6 0.0 0.0
15:56 4.1 2.3 88 1016.6 10.7 NE 13.6 0.0 0.0
15:57 4.1 2.3 88 1016.6 10.7 NE 13.6 0.0 0.0
15:58 4.1 2.3 88 1016.6 6.9 NE 13.6 0.0 0.0
15:59 4.1 2.3 88 1016.6 14.5 WNW 14.5 0.0 0.0
16:00 4.1 2.3 88 1016.7 11.4 NE 14.5 0.0 0.0
16:01 4.1 2.3 88 1016.7 11.4 NE 14.5 0.0 0.0
16:02 4.2 2.2 87 1016.6 13.6 NE 14.5 0.0 0.0
16:03 4.2 2.2 87 1016.6 11.4 N 14.5 0.0 0.0
16:04 4.2 2.2 87 1016.6 10.7 NE 14.5 0.0 0.0
16:05 4.2 2.2 87 1016.6 11.4 NE 14.5 0.0 0.0
16:06 4.3 2.3 87 1016.6 13.6 NE 14.5 0.0 0.0
16:07 4.4 2.4 87 1016.6 9.8 N 14.5 0.0 0.0
16:08 4.4 2.4 87 1016.7 13.6 NE 14.5 0.0 0.0
16:09 4.5 2.5 87 1016.7 9.8 N 13.6 0.0 0.0
16:11 4.5 2.4 86 1016.5 12.1 N 13.6 0.0 0.0
16:12 4.6 2.5 86 1016.5 13.0 NE 13.6 0.0 0.0
16:14 4.7 2.6 86 1016.5 8.3 N 13.6 0.0 0.0
16:15 4.8 2.5 85 1016.4 12.1 NE 13.6 0.0 0.0
16:17 4.8 2.5 85 1016.6 11.4 NE 13.6 0.0 0.0
16:18 4.8 2.5 85 1016.4 12.1 NE 13.6 0.0 0.0
16:19 4.9 2.6 85 1016.5 11.4 NE 13.6 0.0 0.0
16:20 4.9 2.6 85 1016.4 12.1 NE 13.6 0.0 0.0
16:21 4.9 2.4 84 1016.7 10.7 N 13.6 0.0 0.0
16:22 4.9 2.4 84 1016.5 8.3 NE 13.6 0.0 0.0
16:23 5.0 2.5 84 1016.6 6.9 NNE 13.6 0.0 0.0
16:24 5.0 2.5 84 1016.4 7.6 NE 13.6 0.0 0.0
16:25 5.1 2.6 84 1016.5 13.0 NE 13.0 0.0 0.0
16:26 5.1 2.6 84 1016.5 11.4 NE 13.0 0.0 0.0
16:27 5.1 2.6 84 1016.5 12.1 NE 13.0 0.0 0.0
16:28 5.1 2.6 84 1016.5 17.4 NE 17.4 0.0 0.0
16:29 5.1 2.6 84 1016.5 15.9 N 17.4 0.0 0.0
16:30 5.1 2.6 84 1016.5 13.0 NE 17.4 0.0 0.0
16:31 5.1 2.6 84 1016.6 12.1 NE 17.4 0.0 0.0
16:32 5.1 2.5 83 1016.5 7.6 NE 17.4 0.0 0.0
16:33 5.1 2.5 83 1016.5 12.1 NE 17.4 0.0 0.0
16:35 5.1 2.5 83 1016.3 10.7 SE 17.4 0.0 0.0
16:36 5.1 2.5 83 1016.7 9.8 NE 17.4 0.0 0.0
16:37 5.1 2.5 83 1016.7 13.6 N 17.4 0.0 0.0
16:38 5.1 2.5 83 1016.6 12.1 NE 17.4 0.0 0.0
16:39 5.1 2.5 83 1016.7 9.2 NE 17.4 0.0 0.0
16:40 5.2 2.6 83 1016.6 8.3 NE 17.4 0.0 0.0
16:41 5.2 2.6 83 1016.6 8.3 NE 17.4 0.0 0.0
16:42 5.2 2.6 83 1016.7 7.6 NE 17.4 0.0 0.0
16:43 5.2 2.6 83 1016.5 10.7 N 17.4 0.0 0.0
16:44 5.2 2.6 83 1016.6 12.1 NE 17.4 0.0 0.0
16:45 5.2 2.6 83 1016.6 13.6 NE 17.4 0.0 0.0
16:46 5.1 2.5 83 1016.6 9.2 NE 14.5 0.0 0.0
16:47 5.2 2.6 83 1016.6 9.2 NE 14.5 0.0 0.0
16:48 5.2 2.6 83 1016.6 12.1 NE 14.5 0.0 0.0
16:49 5.2 2.6 83 1016.6 11.4 N 14.5 0.0 0.0
16:50 5.2 2.6 83 1016.5 7.6 N 14.5 0.0 0.0
16:51 5.2 2.6 83 1016.5 12.1 NNW 14.5 0.0 0.0
16:52 5.2 2.4 82 1016.7 14.5 NE 14.5 0.0 0.0
16:53 5.2 2.4 82 1016.5 13.6 NE 14.5 0.0 0.0
16:54 5.1 2.3 82 1016.5 13.6 NE 14.5 0.0 0.0
16:55 5.1 2.3 82 1016.4 7.6 NE 14.5 0.0 0.0
16:56 5.1 2.3 82 1016.5 6.9 NE 14.5 0.0 0.0
16:57 5.1 2.3 82 1016.4 9.8 NE 14.5 0.0 0.0
16:58 5.1 2.3 82 1016.4 11.4 NE 14.5 0.0 0.0
16:59 5.1 2.3 82 1016.4 13.6 N 14.5 0.0 0.0
17:00 5.1 2.3 82 1016.4 11.4 NE 14.5 0.0 0.0
17:01 5.0 2.2 82 1016.5 10.7 NE 14.5 0.0 0.0
17:02 5.0 2.2 82 1016.6 14.5 NE 14.5 0.0 0.0
17:03 5.0 2.2 82 1016.5 16.8 NE 16.8 0.0 0.0
17:04 5.0 2.2 82 1016.5 9.2 NE 16.8 0.0 0.0
17:05 5.0 2.2 82 1016.4 6.9 NE 16.8 0.0 0.0
17:07 5.0 2.2 82 1016.5 9.2 NE 16.8 0.0 0.0
17:08 5.0 2.2 82 1016.6 6.9 NE 16.8 0.0 0.0
17:09 5.0 2.2 82 1016.5 8.3 NE 16.8 0.0 0.0
17:10 5.0 2.2 82 1016.5 12.1 NE 16.8 0.0 0.0
17:11 5.0 2.2 82 1016.6 11.4 NE 16.8 0.0 0.0
17:12 5.0 2.2 82 1016.5 13.0 NE 16.8 0.0 0.0
17:13 5.0 2.2 82 1016.6 11.4 NE 16.8 0.0 0.0
17:14 5.0 2.2 82 1016.6 11.4 NE 13.6 0.0 0.0
17:15 5.0 2.2 82 1016.6 11.4 NE 13.6 0.0 0.0
17:16 5.0 2.2 82 1016.6 11.4 NE 13.6 0.0 0.0
17:17 5.0 2.2 82 1016.6 11.4 NE 13.0 0.0 0.0
17:18 4.9 2.1 82 1016.7 6.9 N 13.0 0.0 0.0
17:19 4.9 2.1 82 1016.7 7.6 N 13.0 0.0 0.0
17:20 4.9 2.1 82 1016.7 10.7 NE 13.0 0.0 0.0
17:22 4.8 2.0 82 1016.8 9.8 NE 13.0 0.0 0.0
17:23 4.8 2.0 82 1016.7 7.6 NE 11.4 0.0 0.0
17:24 4.8 2.0 82 1016.8 12.1 NE 12.1 0.0 0.0
17:25 4.8 2.0 82 1016.5 13.6 NE 13.6 0.0 0.0
17:26 4.7 1.9 82 1016.7 9.2 NE 13.6 0.0 0.0
17:27 4.7 1.9 82 1016.8 12.1 NE 13.6 0.0 0.0
17:28 4.7 1.9 82 1016.8 8.3 N 13.6 0.0 0.0
17:29 4.6 1.8 82 1016.8 7.6 N 13.6 0.0 0.0
17:30 4.6 1.8 82 1016.8 8.3 N 13.6 0.0 0.0
17:31 4.6 1.8 82 1016.9 9.8 NE 13.6 0.0 0.0
17:32 4.5 1.7 82 1016.8 5.4 NE 13.6 0.0 0.0
17:33 4.5 1.7 82 1016.8 8.3 NE 13.6 0.0 0.0
17:34 4.5 1.7 82 1016.8 6.9 N 13.6 0.0 0.0
17:35 4.5 1.7 82 1016.8 5.4 NE 13.6 0.0 0.0
17:36 4.4 1.6 82 1016.8 6.0 NE 12.1 0.0 0.0
17:37 4.4 1.6 82 1016.8 4.5 NE 12.1 0.0 0.0
17:38 4.4 1.6 82 1016.9 7.6 NE 9.8 0.0 0.0
17:39 4.4 1.8 83 1016.8 7.6 N 9.8 0.0 0.0
17:40 4.3 1.7 83 1016.9 9.8 NE 9.8 0.0 0.0
17:41 4.3 1.7 83 1016.9 9.2 NE 9.8 0.0 0.0
17:42 4.2 1.6 83 1017.0 9.2 NE 9.8 0.0 0.0
17:43 4.2 1.6 83 1016.9 7.6 NE 9.8 0.0 0.0
17:44 4.2 1.6 83 1017.0 11.4 NE 11.4 0.0 0.0
17:45 4.1 1.5 83 1017.0 8.3 NE 11.4 0.0 0.0
17:46 4.1 1.5 83 1017.0 9.2 N 11.4 0.0 0.0
17:47 4.1 1.5 83 1017.0 6.0 N 11.4 0.0 0.0
17:48 4.0 1.4 83 1016.9 6.9 N 11.4 0.0 0.0
17:49 4.0 1.4 83 1016.8 8.3 NE 11.4 0.0 0.0
17:50 4.0 1.4 83 1017.0 6.9 N 11.4 0.0 0.0
17:51 4.0 1.4 83 1016.9 6.9 NE 11.4 0.0 0.0
17:52 3.9 1.3 83 1016.9 13.0 NE 13.0 0.0 0.0
17:53 3.9 1.3 83 1017.0 13.6 NE 13.6 0.0 0.0
17:55 3.9 1.3 83 1017.1 9.2 N 13.6 0.0 0.0
17:56 3.9 1.3 83 1017.0 6.9 NE 13.6 0.0 0.0
17:57 3.9 1.3 83 1017.1 4.5 NE 13.6 0.0 0.0
17:58 3.8 1.2 83 1017.1 8.3 NE 13.6 0.0 0.0
17:59 3.8 1.2 83 1017.2 6.9 NE 13.6 0.0 0.0
18:00 3.8 1.2 83 1017.2 8.3 NE 13.6 0.0 0.0
18:01 3.8 1.2 83 1017.3 6.9 NE 13.6 0.0 0.0
18:02 3.8 1.2 83 1017.1 6.0 NE 13.6 0.0 0.0
18:03 3.8 1.2 83 1017.2 6.9 NE 13.6 0.0 0.0
18:04 3.8 1.2 83 1017.2 3.8 NE 9.2 0.0 0.0
18:05 3.8 1.2 83 1017.2 6.9 NE 9.2 0.0 0.0
18:06 3.7 1.3 84 1017.2 3.8 N 8.3 0.0 0.0
18:07 3.7 1.3 84 1017.2 9.2 NE 9.2 0.0 0.0
18:08 3.7 1.3 84 1017.2 6.9 N 9.2 0.0 0.0
18:09 3.7 1.3 84 1017.2 6.0 NNW 9.2 0.0 0.0
18:10 3.7 1.3 84 1017.1 8.3 NE 9.2 0.0 0.0
18:12 3.7 1.3 84 1017.2 6.9 NE 9.8 0.0 0.0
18:13 3.7 1.3 84 1017.2 7.6 N 9.8 0.0 0.0
18:15 3.7 1.3 84 1017.3 7.6 N 9.8 0.0 0.0
18:17 3.7 1.3 84 1017.2 7.6 N 9.8 0.0 0.0
18:18 3.7 1.3 84 1017.2 7.6 N 9.8 0.0 0.0
18:19 3.6 1.2 84 1017.2 9.2 NE 9.8 0.0 0.0
18:20 3.6 1.2 84 1017.2 15.9 NE 15.9 0.0 0.0
18:21 3.6 1.2 84 1017.4 6.0 NE 15.9 0.0 0.0
18:22 3.6 1.2 84 1017.3 6.0 NE 15.9 0.0 0.0
18:23 3.6 1.2 84 1017.4 10.7 NE 15.9 0.0 0.0
18:24 3.7 1.3 84 1017.3 10.7 NE 15.9 0.0 0.0
18:25 3.6 1.2 84 1017.2 9.2 NE 15.9 0.0 0.0
18:26 3.6 1.2 84 1017.2 6.0 N 15.9 0.0 0.0
18:27 3.6 1.2 84 1017.3 8.3 NE 15.9 0.0 0.0
18:28 3.6 1.2 84 1017.3 9.2 NE 15.9 0.0 0.0
18:29 3.6 1.2 84 1017.2 8.3 NE 15.9 0.0 0.0
18:30 3.6 1.2 84 1017.3 10.7 NE 11.4 0.0 0.0
18:31 3.6 1.2 84 1017.3 7.6 NE 11.4 0.0 0.0
18:32 3.6 1.2 84 1017.4 6.9 NE 11.4 0.0 0.0
18:34 3.6 1.2 84 1017.3 7.6 N 11.4 0.0 0.0
18:35 3.6 1.2 84 1017.3 8.3 NE 10.7 0.0 0.0
18:36 3.6 1.2 84 1017.3 12.1 NE 12.1 0.0 0.0
18:37 3.6 1.2 84 1017.4 12.1 NE 12.1 0.0 0.0
18:38 3.6 1.2 84 1017.4 9.8 NE 12.1 0.0 0.0
18:39 3.6 1.2 84 1017.4 9.8 NE 12.1 0.0 0.0
18:40 3.6 1.2 84 1017.4 11.4 NE 12.1 0.0 0.0
18:41 3.6 1.2 84 1017.2 6.0 NE 12.1 0.0 0.0
18:42 3.7 1.3 84 1017.4 11.4 NE 12.1 0.0 0.0
18:43 3.7 1.3 84 1017.4 11.4 NE 12.1 0.0 0.0
18:44 3.6 1.2 84 1017.4 10.7 NE 12.1 0.0 0.0
18:45 3.6 1.2 84 1017.3 8.3 NE 12.1 0.0 0.0
18:46 3.7 1.3 84 1017.3 14.5 NE 14.5 0.0 0.0
18:47 3.7 1.3 84 1017.5 6.9 NE 14.5 0.0 0.0
18:48 3.7 1.3 84 1017.3 7.6 NE 14.5 0.0 0.0
18:49 3.7 1.4 85 1017.4 9.8 N 14.5 0.0 0.0
18:50 3.7 1.3 84 1017.4 10.7 NE 14.5 0.0 0.0
18:51 3.7 1.4 85 1017.5 12.1 NE 14.5 0.0 0.0
18:52 3.7 1.4 85 1017.4 6.9 N 14.5 0.0 0.0
18:53 3.7 1.4 85 1017.4 13.6 NE 14.5 0.0 0.0
18:55 3.7 1.3 84 1017.4 12.1 N 14.5 0.0 0.0
18:56 3.7 1.4 85 1017.3 8.3 NE 14.5 0.0 0.0
18:57 3.7 1.4 85 1017.6 6.0 N 13.6 0.0 0.0
18:58 3.7 1.4 85 1017.4 11.4 NE 13.6 0.0 0.0
18:59 3.7 1.4 85 1017.5 9.2 NE 13.6 0.0 0.0
19:00 3.7 1.4 85 1017.4 6.9 N 13.6 0.0 0.0
19:01 3.7 1.4 85 1017.5 9.8 NE 13.6 0.0 0.0
19:02 3.7 1.4 85 1017.4 13.6 NE 13.6 0.0 0.0
19:03 3.7 1.4 85 1017.5 15.2 E 15.2 0.0 0.0
19:04 3.8 1.5 85 1017.6 14.5 NE 15.2 0.0 0.0
19:06 3.8 1.5 85 1017.6 9.8 NE 15.2 0.0 0.0
19:07 3.8 1.5 85 1017.6 9.2 N 15.2 0.0 0.0
19:08 3.8 1.5 85 1017.6 13.0 NNE 15.2 0.0 0.0
19:09 3.8 1.5 85 1017.7 7.6 NE 15.2 0.0 0.0
19:10 3.8 1.5 85 1017.6 9.8 NE 15.2 0.0 0.0
19:11 3.8 1.5 85 1017.4 9.2 NE 15.2 0.0 0.0
19:12 3.8 1.5 85 1017.7 13.0 NE 15.2 0.0 0.0
19:13 3.8 1.5 85 1017.6 10.7 N 14.5 0.0 0.0
19:14 3.8 1.5 85 1017.6 10.7 N 14.5 0.0 0.0
19:16 3.8 1.5 85 1017.6 10.7 N 13.0 0.0 0.0
19:17 3.8 1.5 85 1017.7 10.7 N 13.0 0.0 0.0
19:18 3.8 1.5 85 1017.8 10.7 N 13.0 0.0 0.0
19:19 3.8 1.5 85 1017.6 10.7 N 13.0 0.0 0.0
19:20 3.9 1.6 85 1017.6 9.2 NNE 13.0 0.0 0.0
19:21 3.9 1.6 85 1017.7 9.2 NE 13.0 0.0 0.0
19:22 3.9 1.6 85 1017.7 13.0 NE 13.0 0.0 0.0
19:23 3.9 1.6 85 1017.7 13.6 NE 13.6 0.0 0.0
19:24 3.9 1.6 85 1017.7 13.6 NE 13.6 0.0 0.0
19:25 3.9 1.6 85 1017.6 15.2 NE 15.2 0.0 0.0
19:27 3.9 1.6 85 1017.6 11.4 NE 15.2 0.0 0.0
19:28 3.9 1.6 85 1017.7 6.0 NW 15.2 0.0 0.0
19:29 3.9 1.6 85 1017.8 15.9 S 15.9 0.0 0.0
19:30 3.9 1.6 85 1017.8 14.5 NE 15.9 0.0 0.0
19:31 3.9 1.6 85 1017.8 7.6 NE 15.9 0.0 0.0
19:32 3.9 1.6 85 1017.7 13.0 NE 15.9 0.0 0.0
19:33 4.0 1.7 85 1017.8 9.2 S 15.9 0.0 0.0
19:34 4.0 1.7 85 1017.7 12.1 NE 15.9 0.0 0.0
19:35 3.9 1.6 85 1017.8 6.0 N 15.9 0.0 0.0
19:36 3.9 1.6 85 1017.8 8.3 N 15.9 0.0 0.0
19:38 4.0 1.7 85 1017.7 10.7 WNW 15.9 0.0 0.0
19:39 3.9 1.6 85 1017.8 10.7 NE 15.9 0.0 0.0
19:40 3.9 1.6 85 1017.9 8.3 NE 15.9 0.0 0.0
19:41 3.9 1.6 85 1017.8 13.0 NE 15.9 0.0 0.0
19:42 3.9 1.6 85 1017.9 7.6 N 15.9 0.0 0.0
19:43 4.0 1.7 85 1017.7 10.7 N 15.9 0.0 0.0
19:44 4.0 1.7 85 1017.8 12.1 NE 15.9 0.0 0.0
19:45 3.9 1.6 85 1017.8 15.9 N 15.9 0.0 0.0
19:46 4.0 1.7 85 1017.8 13.0 NE 15.9 0.0 0.0
19:47 4.0 1.7 85 1017.9 7.6 NE 15.9 0.0 0.0
19:49 4.0 1.7 85 1018.0 7.6 NE 15.9 0.0 0.0
19:50 4.0 1.7 85 1017.9 6.9 NE 15.9 0.0 0.0
19:51 4.0 1.7 85 1017.8 6.9 N 15.9 0.0 0.0
19:52 4.0 1.7 85 1017.8 9.8 NE 15.9 0.0 0.0
19:53 4.0 1.7 85 1017.8 18.3 NE 18.3 0.0 0.0
19:54 4.0 1.7 85 1017.8 3.8 N 18.3 0.0 0.0
19:55 4.0 1.7 85 1018.0 13.0 NE 18.3 0.0 0.0
19:56 4.0 1.7 85 1018.1 11.4 NE 18.3 0.0 0.0
19:57 4.0 1.7 85 1017.9 9.2 NE 18.3 0.0 0.0
19:58 4.0 1.7 85 1017.9 7.6 NW 18.3 0.0 0.0
20:00 4.0 1.7 85 1018.0 7.6 NE 18.3 0.0 0.0
20:01 3.9 1.6 85 1017.7 9.2 NE 18.3 0.0 0.0
20:02 4.0 1.7 85 1018.0 4.5 WNW 18.3 0.0 0.0
20:03 3.9 1.6 85 1017.9 13.0 N 13.0 0.0 0.0
20:04 4.0 1.7 85 1017.8 10.7 N 13.0 0.0 0.0
20:05 4.0 1.7 85 1017.8 7.6 N 13.0 0.0 0.0
20:06 4.0 1.7 85 1017.8 6.0 NE 13.0 0.0 0.0
20:07 4.0 1.7 85 1018.0 9.8 NE 13.0 0.0 0.0
20:08 4.0 1.7 85 1018.0 10.7 NE 13.0 0.0 0.0
20:10 4.0 1.7 85 1017.9 6.9 NE 13.0 0.0 0.0
20:11 4.0 1.7 85 1017.9 9.8 N 13.0 0.0 0.0
20:12 4.0 1.7 85 1017.9 9.8 SE 13.0 0.0 0.0
20:14 4.0 1.7 85 1017.9 13.0 NE 13.0 0.0 0.0
20:16 4.0 1.7 85 1017.8 13.0 NE 13.0 0.0 0.0
20:18 4.0 1.7 85 1018.0 13.0 NE 13.0 0.0 0.0
20:19 4.1 2.0 86 1017.8 5.4 N 13.0 0.0 0.0
20:21 4.1 2.0 86 1017.9 9.8 NE 13.0 0.0 0.0
20:22 4.1 2.0 86 1017.9 9.2 N 13.0 0.0 0.0
20:23 4.1 2.0 86 1018.0 9.8 NE 13.0 0.0 0.0
20:24 4.1 2.0 86 1017.9 11.4 N 13.0 0.0 0.0
20:25 4.1 2.0 86 1017.8 7.6 N 13.0 0.0 0.0
20:26 4.1 2.0 86 1017.8 13.0 SE 13.0 0.0 0.0
20:28 4.1 2.0 86 1018.0 7.6 NE 13.0 0.0 0.0
20:29 4.1 2.0 86 1018.0 10.7 NE 13.0 0.0 0.0
20:30 4.2 2.1 86 1017.8 19.7 N 19.7 0.0 0.0
20:31 4.2 2.1 86 1018.0 7.6 N 19.7 0.0 0.0
20:32 4.2 2.1 86 1017.9 10.7 N 19.7 0.0 0.0
20:33 4.2 2.1 86 1018.0 9.8 N 19.7 0.0 0.0
20:34 4.2 2.1 86 1017.9 11.4 N 19.7 0.0 0.0
20:35 4.2 2.1 86 1018.0 9.8 NE 19.7 0.0 0.0
20:36 4.2 2.1 86 1017.9 9.8 NW 19.7 0.0 0.0
20:38 4.2 2.1 86 1018.0 14.5 NE 19.7 0.0 0.0
20:39 4.3 2.2 86 1017.7 12.1 NE 19.7 0.0 0.0
20:40 4.3 2.2 86 1017.8 9.2 N 14.5 0.0 0.0
20:41 4.3 2.2 86 1017.8 9.8 E 14.5 0.0 0.0
20:42 4.3 2.2 86 1017.8 7.6 NW 14.5 0.0 0.0
20:43 4.3 2.2 86 1017.9 14.5 NE 14.5 0.0 0.0
20:45 4.4 2.3 86 1017.8 12.1 N 14.5 0.0 0.0
20:46 4.4 2.3 86 1017.9 12.1 N 14.5 0.0 0.0
20:47 4.4 2.3 86 1017.9 13.0 NE 14.5 0.0 0.0
20:48 4.4 2.3 86 1018.1 12.1 N 14.5 0.0 0.0
20:49 4.4 2.3 86 1018.0 6.9 N 14.5 0.0 0.0
20:50 4.4 2.3 86 1018.0 9.8 N 14.5 0.0 0.0
20:51 4.5 2.4 86 1018.1 9.8 N 14.5 0.0 0.0
20:53 4.5 2.4 86 1018.0 12.1 NE 21.3 0.0 0.0
20:54 4.5 2.4 86 1018.0 8.3 N 21.3 0.0 0.0
20:55 4.5 2.4 86 1018.0 13.6 N 21.3 0.0 0.0
20:56 4.5 2.4 86 1018.2 9.2 NW 21.3 0.0 0.0
20:57 4.5 2.4 86 1018.1 14.5 N 21.3 0.0 0.0
20:58 4.5 2.4 86 1018.1 7.6 NE 21.3 0.0 0.0
20:59 4.5 2.4 86 1018.2 13.0 NW 21.3 0.0 0.0
21:01 4.5 2.4 86 1018.2 7.6 W 21.3 0.0 0.0
21:02 4.5 2.4 86 1018.2 9.8 NE 21.3 0.0 0.0
21:03 4.5 2.4 86 1018.1 10.7 NW 14.5 0.0 0.0
21:04 4.5 2.4 86 1018.1 8.3 NE 14.5 0.0 0.0
21:06 4.5 2.4 86 1018.2 9.2 N 14.5 0.0 0.0
21:07 4.5 2.4 86 1018.1 10.7 E 14.5 0.0 0.0
21:08 4.5 2.4 86 1018.3 7.6 N 13.0 0.0 0.0
21:10 4.5 2.4 86 1018.2 17.4 NE 17.4 0.0 0.0
21:11 4.6 2.5 86 1018.2 9.8 N 17.4 0.0 0.0
21:12 4.6 2.5 86 1018.1 9.8 NE 17.4 0.0 0.0
21:13 4.6 2.5 86 1018.2 6.0 NE 17.4 0.0 0.0
21:14 4.6 2.5 86 1018.3 8.3 NE 17.4 0.0 0.0
21:15 4.6 2.5 86 1018.2 8.3 NE 17.4 0.0 0.0
21:16 4.6 2.5 86 1018.2 8.3 NE 17.4 0.0 0.0
21:17 4.6 2.5 86 1018.1 8.3 NE 17.4 0.0 0.0
21:18 4.6 2.5 86 1018.5 8.3 NE 17.4 0.0 0.0
21:19 4.7 2.6 86 1018.3 11.4 N 17.4 0.0 0.0
21:21 4.7 2.6 86 1018.2 12.1 NE 12.1 0.0 0.0
21:22 4.7 2.6 86 1018.2 12.1 N 13.6 0.0 0.0
21:23 4.7 2.6 86 1018.3 13.0 N 13.6 0.0 0.0
21:24 4.7 2.6 86 1018.4 12.1 N 13.6 0.0 0.0
21:25 4.7 2.6 86 1018.1 11.4 NE 13.6 0.0 0.0
21:26 4.8 2.7 86 1018.1 9.2 N 13.6 0.0 0.0
21:27 4.8 2.7 86 1018.3 17.4 N 17.4 0.0 0.0
21:28 4.8 2.7 86 1018.3 9.2 N 17.4 0.0 0.0
21:29 4.8 2.7 86 1018.2 15.9 N 17.4 0.0 0.0
21:31 4.8 2.7 86 1018.2 13.0 N 17.4 0.0 0.0
21:33 4.8 2.7 86 1018.2 12.1 E 17.4 0.0 0.0
21:34 4.7 2.6 86 1018.3 7.6 NW 17.4 0.0 0.0
21:36 4.8 2.7 86 1018.3 9.8 NE 17.4 0.0 0.0
21:37 4.8 2.7 86 1018.2 9.2 N 17.4 0.0 0.0
21:38 4.7 2.6 86 1018.4 17.4 NE 17.4 0.0 0.0
21:40 4.7 2.6 86 1018.4 11.4 NE 17.4 0.0 0.0
21:41 4.7 2.6 86 1018.4 12.1 NE 17.4 0.0 0.0
21:43 4.7 2.6 86 1018.4 12.1 N 17.4 0.0 0.0
21:44 4.7 2.6 86 1018.5 6.9 NE 17.4 0.0 0.0
21:45 4.7 2.6 86 1018.5 19.0 NE 19.0 0.0 0.0
21:46 4.7 2.4 85 1018.5 6.0 N 19.0 0.0 0.0
21:47 4.6 2.3 85 1018.5 9.2 NE 19.0 0.0 0.0
21:49 4.6 2.3 85 1018.5 13.0 NE 19.0 0.0 0.0
21:50 4.6 2.3 85 1018.4 16.8 NW 19.0 0.0 0.0
21:51 4.6 2.3 85 1018.4 16.8 NW 19.0 0.0 0.0
21:52 4.5 2.2 85 1018.4 15.9 NE 19.0 0.0 0.0
21:53 4.5 2.2 85 1018.6 13.6 NE 19.0 0.0 0.0
21:54 4.5 2.2 85 1018.4 13.0 W 19.0 0.0 0.0
21:55 4.5 2.2 85 1018.4 9.2 N 19.0 0.0 0.0
21:56 4.4 2.1 85 1018.4 11.4 NE 16.8 0.0 0.0
21:58 4.4 2.1 85 1018.3 15.9 NE 16.8 0.0 0.0
21:59 4.4 2.1 85 1018.3 13.6 N 16.8 0.0 0.0
22:00 4.4 2.1 85 1018.2 10.7 N 16.8 0.0 0.0
22:01 4.4 2.1 85 1018.2 13.0 NW 15.9 0.0 0.0
22:02 4.4 2.1 85 1018.3 16.8 N 20.6 0.0 0.0
22:03 4.4 2.1 85 1018.1 15.2 NW 20.6 0.0 0.0
22:04 4.4 2.1 85 1018.2 15.2 NW 20.6 0.0 0.0
22:05 4.4 2.1 85 1018.3 21.3 NE 21.3 0.0 0.0
22:07 4.4 2.1 85 1018.2 13.6 NE 21.3 0.0 0.0
22:08 4.4 2.1 85 1018.3 8.3 N 21.3 0.0 0.0
22:09 4.4 2.1 85 1018.2 13.0 NE 21.3 0.0 0.0
22:10 4.4 2.1 85 1018.2 7.6 N 21.3 0.0 0.0
22:12 4.4 2.1 85 1018.2 15.9 NE 21.3 0.0 0.0
22:13 4.4 2.1 85 1018.3 9.8 S 21.3 0.0 0.0
22:15 4.4 2.1 85 1018.2 9.8 S 21.3 0.0 0.0
22:17 4.4 2.1 85 1018.1 9.8 E 15.9 0.0 0.0
22:19 4.4 2.1 85 1018.2 24.4 N 24.4 0.0 0.0
22:20 4.5 2.2 85 1018.3 16.8 N 24.4 0.0 0.0
22:21 4.5 2.2 85 1018.2 13.6 N 24.4 0.0 0.0
22:23 4.4 2.1 85 1018.5 11.4 N 24.4 0.0 0.0
22:24 4.5 2.2 85 1018.3 14.5 NE 24.4 0.0 0.0
22:25 4.5 2.2 85 1018.2 14.5 W 24.4 0.0 0.0
22:26 4.5 2.2 85 1018.2 11.4 N 24.4 0.0 0.0
22:27 4.5 2.2 85 1018.5 9.2 N 24.4 0.0 0.0
22:29 4.5 2.2 85 1018.3 15.2 NE 18.3 0.0 0.0
22:30 4.5 2.2 85 1018.3 15.2 N 18.3 0.0 0.0
22:31 4.5 2.2 85 1018.2 19.7 N 19.7 0.0 0.0
22:32 4.6 2.3 85 1018.3 9.8 NE 19.7 0.0 0.0
22:33 4.6 2.3 85 1018.3 6.0 N 19.7 0.0 0.0
22:34 4.6 2.5 86 1018.3 13.6 NE 19.7 0.0 0.0
22:35 4.6 2.3 85 1018.4 15.2 N 19.7 0.0 0.0
22:36 4.6 2.5 86 1018.2 8.3 NE 19.7 0.0 0.0
22:37 4.6 2.5 86 1018.2 19.0 N 19.7 0.0 0.0
22:39 4.6 2.5 86 1018.2 17.4 N 19.7 0.0 0.0
22:40 4.6 2.3 85 1018.2 15.9 NW 19.7 0.0 0.0
22:41 4.6 2.3 85 1018.3 9.2 N 19.0 0.0 0.0
22:42 4.6 2.3 85 1018.3 13.6 NE 19.0 0.0 0.0
22:43 4.6 2.3 85 1018.2 15.9 NE 19.0 0.0 0.0
22:44 4.6 2.3 85 1018.2 9.8 NE 19.0 0.0 0.0
22:45 4.6 2.3 85 1018.3 15.9 NE 19.0 0.0 0.0
22:46 4.6 2.3 85 1018.3 20.6 NW 20.6 0.0 0.0
22:48 4.6 2.3 85 1018.2 17.4 NE 20.6 0.0 0.0
22:49 4.6 2.5 86 1018.2 14.5 NE 20.6 0.0 0.0
22:50 4.6 2.3 85 1018.2 15.2 NE 20.6 0.0 0.0
22:51 4.6 2.5 86 1018.1 13.0 NE 20.6 0.0 0.0
22:52 4.7 2.6 86 1018.0 13.6 WNW 20.6 0.0 0.0
22:53 4.7 2.6 86 1018.2 17.4 NW 20.6 0.0 0.0
22:54 4.7 2.6 86 1018.2 11.4 NE 20.6 0.0 0.0
22:56 4.7 2.6 86 1018.1 15.2 NE 20.6 0.0 0.0
22:57 4.7 2.6 86 1018.1 11.4 N 17.4 0.0 0.0
22:58 4.7 2.6 86 1018.0 15.9 NE 17.4 0.0 0.0
22:59 4.7 2.4 85 1018.1 13.0 NW 17.4 0.0 0.0
23:01 4.7 2.4 85 1018.3 20.6 N 20.6 0.0 0.0
23:03 4.7 2.4 85 1018.2 18.3 NE 20.6 0.0 0.0
23:05 4.7 2.4 85 1018.2 12.1 NE 20.6 0.0 0.0
23:06 4.7 2.4 85 1018.2 13.0 N 20.6 0.0 0.0
23:08 4.8 2.5 85 1018.5 6.0 NE 20.6 0.0 0.0
23:09 4.8 2.5 85 1018.3 25.9 NE 25.9 0.0 0.0
23:11 4.8 2.5 85 1018.4 19.0 E 25.9 0.0 0.0
23:12 4.8 2.5 85 1018.3 16.8 NE 25.9 0.0 0.0
23:13 4.8 2.5 85 1018.2 14.5 NE 25.9 0.0 0.0
23:15 4.8 2.5 85 1018.3 14.5 NE 25.9 0.0 0.0
23:16 4.8 2.5 85 1018.3 14.5 NE 25.9 0.0 0.0
23:18 4.8 2.5 85 1018.5 14.5 NE 25.9 0.0 0.0
23:20 4.8 2.5 85 1018.3 9.8 N 19.0 0.0 0.0
23:21 4.8 2.5 85 1018.4 6.9 N 16.8 0.0 0.0
23:22 4.9 2.6 85 1018.4 10.7 N 16.8 0.0 0.0
23:23 4.8 2.5 85 1018.4 9.2 NW 14.5 0.0 0.0
23:24 4.8 2.5 85 1018.4 9.2 S 14.5 0.0 0.0
23:25 4.8 2.5 85 1018.3 12.1 S 14.5 0.0 0.0
23:27 4.8 2.5 85 1018.5 11.4 N 14.5 0.0 0.0
23:28 4.8 2.5 85 1018.5 9.8 N 14.5 0.0 0.0
23:29 4.8 2.5 85 1018.5 7.6 N 13.6 0.0 0.0
23:31 4.7 2.4 85 1018.5 8.3 NE 14.5 0.0 0.0
23:32 4.7 2.4 85 1018.3 11.4 N 14.5 0.0 0.0
23:33 4.7 2.4 85 1018.4 10.7 N 14.5 0.0 0.0
23:35 4.7 2.4 85 1018.5 14.5 SW 15.2 0.0 0.0
23:36 4.7 2.4 85 1018.4 12.1 NE 15.2 0.0 0.0
23:37 4.7 2.4 85 1018.4 12.1 NE 15.2 0.0 0.0
23:39 4.7 2.4 85 1018.3 15.9 N 15.9 0.0 0.0
23:40 4.7 2.4 85 1018.4 13.6 N 15.9 0.0 0.0
23:42 4.8 2.5 85 1018.3 13.6 W 15.9 0.0 0.0
23:43 4.8 2.5 85 1018.5 9.8 NW 15.9 0.0 0.0
23:44 4.8 2.5 85 1018.6 11.4 NE 15.9 0.0 0.0
23:46 4.8 2.5 85 1018.6 8.3 NNE 15.9 0.0 0.0
23:47 4.8 2.5 85 1018.5 8.3 W 15.9 0.0 0.0
23:49 4.8 2.5 85 1018.4 11.4 NE 15.9 0.0 0.0
23:50 4.8 2.5 85 1018.5 9.8 E 14.5 0.0 0.0
23:52 4.8 2.5 85 1018.7 13.0 NE 14.5 0.0 0.0
23:53 4.8 2.3 84 1018.7 6.0 N 14.5 0.0 0.0
23:55 4.8 2.3 84 1018.5 5.4 N 13.0 0.0 0.0
23:56 4.8 2.3 84 1018.7 14.5 NW 14.5 0.0 0.0
23:57 4.8 2.3 84 1018.7 15.9 N 15.9 0.0 0.0
23:59 4.8 2.3 84 1018.7 6.9 N 15.9 0.0 0.0

UK - WEATHER STATION TOPSITES - UK World Weather Websites

This is a private weather station, never base important decisions or events on data from this weather station. Although every effort has been made to make the data as accurate as possible it does not meet MetOffice standards. It is proved as a guide of local weather conditions. We accept no liability for any loss which may arise from use of the data.

Copyright © Carnkie Weather 2009 - 2018.